GFSCGP_850_temp_000.txt.gz
Temp
28 25 24 25 25 27 28 27 28 28 28 25 25 24 25 25 25 25 25 25 25 24 24 23 23 23 22 22 21 21 20 20 20 20 20 20 20 19 19 18 18 17 17 17
25 24 26 27 28 28 28 28 28 29 29 26 24 25 26 26 25 25 25 25 25 25 24 23 23 23 22 22 21 21 21 21 21 20 20 20 19 20 19 18 18 18 17 17
23 26 28 29 28 28 27 27 27 29 29 26 25 24 24 25 26 26 25 25 25 25 24 24 23 23 22 22 22 21 21 21 21 21 20 20 19 19 19 18 18 18 17 17
25 28 28 28 28 28 25 28 31 29 29 25 26 22 22 25 25 25 26 25 25 25 25 24 23 23 22 22 22 21 21 22 22 21 21 20 19 19 19 18 18 17 17 17
25 27 27 27 29 28 28 29 29 29 28 25 26 22 25 22 22 22 25 25 26 25 25 24 23 23 23 22 22 22 22 22 22 22 22 21 19 19 19 18 18 17 17 16
26 30 28 29 30 29 31 31 26 24 22 23 25 24 22 22 25 26 25 26 26 25 25 25 24 23 23 22 22 22 23 22 22 23 22 20 19 20 19 18 18 17 18 17
26 28 29 30 28 29 30 24 23 25 22 23 22 24 26 24 27 26 25 26 26 26 24 25 24 23 23 22 22 22 22 22 22 22 20 21 21 21 20 18 18 18 18 16
24 25 28 29 28 28 26 24 21 25 23 24 24 25 28 25 27 27 28 27 27 25 24 25 25 24 24 23 23 23 23 22 22 22 20 21 21 20 20 19 18 17 16 16
22 23 28 29 30 28 28 25 24 23 24 23 24 26 27 26 26 27 27 26 26 25 24 24 25 25 24 24 24 23 23 23 22 22 22 22 22 21 20 19 17 16 16 16
24 24 26 30 30 28 29 26 26 20 24 25 24 26 24 25 24 25 25 25 26 26 24 24 25 25 25 25 25 24 24 23 23 22 22 22 21 21 20 18 17 18 17 16
25 24 27 28 27 27 27 26 24 22 21 22 23 22 23 25 24 24 24 27 26 26 26 25 25 26 25 25 24 24 23 23 22 22 23 22 20 20 19 18 18 18 17 17
24 22 25 27 27 28 26 26 23 22 24 21 21 23 25 24 24 26 26 27 28 27 27 27 27 25 25 25 24 24 23 23 22 22 22 22 20 20 19 19 18 18 18 17
27 22 24 24 25 27 28 26 24 21 19 22 22 23 25 25 24 27 27 29 30 28 27 27 26 25 25 25 24 24 24 23 22 21 21 20 20 20 20 20 19 19 19 18
28 21 24 26 24 26 27 27 25 23 21 21 22 26 26 25 24 24 27 30 31 31 28 27 27 26 26 25 25 24 24 23 22 22 21 20 20 20 19 20 19 19 18 18
26 23 23 24 28 27 30 29 25 26 24 26 25 24 23 22 23 25 30 31 30 29 29 28 27 27 26 24 23 23 23 23 22 22 20 20 21 20 19 19 19 19 18 18
21 24 24 27 27 29 30 30 28 28 26 27 25 24 23 25 27 26 29 30 30 30 30 29 28 28 26 25 25 24 24 24 22 21 20 20 20 19 20 20 20 19 19 18
22 21 21 24 26 27 27 29 29 29 27 28 24 25 23 24 23 26 28 29 29 29 29 29 27 26 25 25 26 24 24 23 22 21 20 20 20 20 20 20 20 19 19 18
21 20 19 22 25 25 26 28 28 25 25 23 26 24 23 24 27 28 30 29 30 29 29 29 28 27 27 26 24 23 23 23 22 20 19 20 20 20 20 20 20 20 19 18
19 19 18 20 21 25 27 24 25 25 25 23 24 24 24 27 27 27 30 30 30 29 29 29 28 27 27 26 25 24 22 22 22 20 20 20 21 21 20 20 20 19 18 17
21 18 19 18 23 24 23 22 24 23 20 23 22 22 23 26 21 21 29 30 29 28 28 28 28 28 28 27 25 24 22 22 21 20 20 20 21 20 20 21 20 19 18 17
19 18 18 16 18 19 21 21 25 20 20 22 24 24 24 22 22 26 28 28 28 28 28 28 28 27 27 26 26 23 22 22 22 20 20 20 20 20 21 21 19 18 17 16
17 18 16 16 19 20 20 21 20 20 23 24 24 24 24 25 25 25 26 27 27 27 27 27 27 27 26 26 25 23 22 20 19 19 18 17 17 17 16 20 19 17 17 17
18 16 16 15 15 16 18 17 20 21 22 23 24 24 25 25 25 25 25 26 26 26 27 26 26 26 24 23 22 21 19 19 18 17 17 16 17 16 15 15 17 18 17 16
18 18 16 16 17 15 19 21 22 22 22 22 22 21 23 24 24 25 25 25 25 25 26 26 25 25 25 22 20 20 21 18 17 17 17 20 18 15 15 16 17 17 15 15
17 17 15 15 17 18 19 20 21 22 22 22 22 22 22 22 22 23 24 24 24 24 24 23 23 24 22 20 20 19 18 17 17 19 19 18 17 18 16 16 16 16 15 15
17 16 14 14 15 15 16 19 21 21 21 21 21 22 21 22 21 21 22 23 23 23 22 19 19 19 19 17 17 17 17 17 17 17 16 16 16 15 15 16 16 15 16 15

GFSCGP_850_temp_003.txt.gz
Temp
27 24 22 24 25 25 26 26 25 26 26 24 23 22 22 22 22 22 21 21 21 22 22 22 22 22 22 22 21 21 20 20 19 19 19 19 19 19 18 18 17 17 17 17
24 22 24 26 25 26 27 27 26 27 26 24 23 23 24 23 23 23 22 22 22 22 22 22 22 22 22 22 21 21 21 20 20 20 19 19 19 19 18 18 17 18 17 17
22 24 25 27 27 26 25 25 26 26 25 24 23 22 22 23 24 24 23 23 23 23 23 22 22 22 22 22 22 21 21 21 21 21 20 19 18 19 19 18 18 18 17 17
24 25 27 26 27 26 26 25 27 26 26 23 24 21 21 23 23 23 24 23 23 24 24 24 23 23 22 22 22 21 21 22 22 21 20 20 20 19 19 18 18 17 16 16
24 26 25 26 27 27 27 26 26 26 26 23 23 22 21 22 21 23 24 24 23 24 24 24 23 23 23 22 22 22 22 22 22 21 21 21 20 19 19 19 18 17 17 17
25 28 26 26 28 28 28 28 23 20 20 22 22 22 21 22 23 24 24 24 24 24 24 24 24 23 23 22 22 22 22 22 22 22 22 21 20 20 20 19 17 17 17 16
26 26 27 28 27 27 26 23 21 22 21 21 21 22 23 23 26 25 24 24 24 23 23 24 24 23 23 23 23 23 23 23 22 22 22 22 21 21 20 19 18 18 17 17
21 24 25 27 26 25 24 22 20 23 20 23 21 22 26 26 26 27 26 25 24 24 24 24 24 24 23 24 24 23 23 23 22 22 23 22 21 21 21 20 18 18 17 17
19 21 26 27 28 26 26 23 23 22 21 20 20 23 26 24 24 26 26 25 24 24 24 23 24 24 24 24 24 24 24 23 23 23 22 22 21 21 21 20 20 19 17 17
22 23 24 28 27 26 27 24 24 19 23 23 22 25 24 25 22 23 24 25 25 25 24 23 24 25 25 24 25 25 24 24 23 23 23 22 21 21 21 20 19 18 17 16
20 22 24 26 24 25 25 24 21 20 19 21 22 21 21 25 22 22 23 25 25 25 25 24 24 26 26 25 24 25 24 23 23 23 22 22 21 21 21 20 19 19 18 17
21 21 24 24 25 26 25 24 24 25 22 18 20 22 24 23 21 23 24 25 26 27 26 25 25 26 25 25 24 25 24 24 23 22 22 21 21 21 20 20 19 19 18 17
21 19 21 22 24 25 26 23 21 19 18 19 22 22 23 22 22 23 24 25 27 28 26 25 25 24 25 25 24 24 24 24 23 22 22 21 21 20 20 20 19 18 18 18
25 18 25 25 25 24 26 24 22 22 20 20 21 25 26 24 23 21 24 25 27 28 28 26 25 26 26 25 24 23 24 24 24 23 22 21 21 21 20 20 19 19 19 18
25 23 20 26 26 25 26 26 23 24 24 25 24 23 24 23 23 23 28 27 26 27 27 26 27 27 27 26 24 23 23 23 23 23 22 22 21 21 21 20 20 19 19 19
21 23 22 23 24 26 26 26 25 27 22 25 23 23 23 26 24 24 27 28 28 28 30 29 29 29 28 28 27 26 25 24 23 22 22 21 21 20 20 19 20 19 19 19
20 23 19 25 24 25 25 26 25 26 25 25 24 24 22 23 22 24 27 28 29 30 29 29 30 30 29 28 27 25 25 23 23 22 20 21 21 19 20 20 19 20 20 19
21 20 18 25 23 24 26 24 25 23 24 23 24 24 22 24 28 29 27 28 28 29 29 29 29 28 28 27 26 25 24 23 23 21 19 21 20 18 20 20 19 20 20 19
16 17 17 19 21 24 24 24 24 26 24 22 22 23 23 24 24 24 26 28 30 29 29 29 29 29 29 28 27 25 23 22 22 21 18 20 19 20 20 19 20 21 20 19
17 15 19 15 22 23 22 21 20 20 22 22 22 21 22 23 22 20 25 27 29 29 29 29 28 28 28 27 27 25 23 22 22 21 20 21 19 19 20 20 20 20 20 19
16 17 18 17 17 20 18 18 20 22 20 20 21 21 22 19 19 23 26 26 26 27 27 28 28 27 27 27 27 26 24 23 23 21 20 21 20 19 19 18 17 16 16 15
17 18 16 16 17 20 19 19 21 19 20 20 21 22 22 23 24 25 25 26 26 26 26 27 26 26 27 27 27 26 24 22 21 20 19 19 19 18 17 18 18 18 15 13
17 17 15 15 15 16 16 16 19 19 20 21 22 22 23 23 24 24 24 25 25 25 26 26 26 26 25 25 26 25 23 22 20 19 18 17 16 16 17 17 19 19 18 15
18 16 15 15 18 15 18 19 20 21 21 22 22 23 24 23 23 23 24 24 24 24 25 25 25 25 24 23 23 21 21 20 18 17 17 16 16 16 17 16 15 17 16 15
16 17 15 15 16 18 18 18 20 20 21 22 22 22 22 23 24 24 24 23 22 24 25 24 24 22 20 19 18 17 18 18 16 15 15 16 16 15 16 16 16 16 15 15
12 15 14 13 15 16 16 18 20 20 20 20 21 20 19 20 19 19 20 20 21 22 22 22 21 21 18 16 16 16 15 17 17 16 16 16 15 16 17 15 16 15 15 15

GFSCGP_850_temp_006.txt.gz
Temp
24 22 21 22 23 24 24 24 26 25 25 23 21 21 21 21 21 21 20 20 20 20 22 21 21 21 21 21 20 20 20 20 19 19 19 18 18 18 18 17 17 17 17 17
22 21 22 23 24 24 24 24 24 25 24 24 22 22 21 21 21 21 21 20 20 21 21 21 21 21 21 21 21 20 20 20 20 19 19 19 18 18 17 17 17 17 17 17
20 24 23 24 24 24 24 24 23 26 23 23 22 22 20 21 21 21 21 21 21 21 21 22 22 21 21 21 21 21 21 20 20 20 19 18 18 18 18 18 18 18 17 17
22 24 24 23 24 23 23 24 25 24 24 22 23 21 19 21 21 21 21 21 22 22 22 23 22 22 22 22 22 21 21 21 20 20 19 19 19 19 19 19 18 18 17 17
22 24 24 24 25 25 26 24 24 23 22 22 22 21 21 21 20 21 22 22 22 23 23 23 23 23 22 22 22 22 21 21 21 20 20 19 19 19 18 18 18 17 17 16
23 26 24 25 26 26 25 24 21 18 19 20 21 22 21 19 22 23 23 23 23 23 23 24 24 23 23 23 22 22 22 22 22 21 20 20 20 19 19 19 19 18 17 16
24 24 26 26 26 26 23 21 20 21 19 20 19 21 25 22 23 25 24 23 23 24 23 24 24 24 24 23 23 22 22 23 22 22 22 22 21 20 20 19 20 19 17 17
20 22 24 25 24 23 23 21 19 22 20 22 19 20 24 26 26 26 26 24 24 23 23 24 25 24 24 23 23 23 23 23 23 23 23 23 21 21 21 20 20 19 18 17
18 20 23 25 25 25 23 22 22 19 19 20 19 21 24 25 24 23 25 25 24 24 24 24 25 25 24 24 24 24 24 24 24 23 23 23 22 21 22 21 21 19 19 18
21 22 22 25 26 25 24 21 23 17 21 21 20 22 22 25 24 22 22 23 24 24 23 23 23 25 25 25 24 24 24 25 25 24 24 23 23 22 22 21 21 20 19 18
20 20 22 23 23 25 23 22 19 18 18 19 20 20 20 23 23 23 21 24 24 25 24 23 24 25 26 26 24 24 24 24 25 24 23 23 22 21 21 21 21 20 19 18
19 20 21 21 23 24 24 22 21 23 20 17 19 21 24 22 23 22 23 24 25 25 26 25 25 25 25 25 25 24 24 24 25 24 23 23 22 21 20 21 21 20 20 19
20 18 21 21 22 23 24 21 19 17 17 17 21 22 22 20 21 22 22 25 25 26 26 25 24 25 25 25 25 24 24 25 25 24 23 22 21 20 20 20 20 20 20 19
23 17 22 23 23 23 23 23 20 21 18 19 19 24 25 23 21 20 23 25 26 27 26 26 25 26 26 26 25 25 25 25 24 24 23 23 22 21 20 20 20 20 19 19
19 21 21 25 22 22 23 23 21 21 22 23 25 21 24 23 21 22 28 25 25 25 25 27 27 28 27 25 25 24 23 23 24 24 24 24 23 21 20 20 19 19 19 19
17 20 19 24 24 23 25 24 22 22 23 22 24 22 22 24 23 23 26 26 25 27 28 29 28 28 28 28 27 25 24 23 22 22 23 22 22 21 21 18 19 18 19 18
17 19 17 22 21 21 21 25 23 23 22 23 22 24 21 22 21 23 25 27 29 30 30 30 30 30 30 30 29 27 26 23 22 21 22 21 20 20 18 15 15 18 19 19
16 18 16 23 20 20 24 23 25 25 23 22 23 23 21 23 27 27 28 29 31 30 29 30 30 30 30 29 28 27 26 24 22 22 21 20 19 20 17 18 17 17 18 19
14 15 17 18 17 22 24 22 23 24 23 22 22 23 22 24 25 24 25 26 26 27 29 30 29 29 28 28 27 26 26 24 22 22 21 20 19 18 18 19 19 16 18 18
16 14 16 15 19 21 21 18 19 18 22 19 20 19 19 21 21 18 23 24 26 26 27 28 28 28 28 28 27 27 26 24 23 22 21 20 19 18 17 19 18 16 16 17
15 16 17 16 18 18 17 16 18 23 21 17 18 20 21 18 19 22 23 24 25 26 26 26 26 27 26 27 27 27 26 26 23 22 19 18 17 17 17 17 17 15 16 16
18 16 15 15 17 20 16 17 21 18 18 19 19 20 20 20 21 23 24 24 24 25 25 25 25 25 26 26 26 25 25 22 24 22 18 16 16 16 16 15 15 16 17 18
17 16 14 15 15 14 15 14 17 19 19 19 20 20 21 21 21 22 23 23 24 24 24 24 25 25 26 26 24 26 21 23 21 19 17 15 15 15 15 14 15 16 16 16
16 14 15 14 15 13 15 16 17 18 18 20 22 23 23 22 22 21 21 23 24 24 24 23 24 24 23 24 22 20 19 20 19 18 15 15 14 14 14 15 15 15 15 17
13 16 15 13 14 15 16 16 16 17 19 20 20 21 20 22 19 20 20 21 21 21 22 23 22 22 22 22 20 19 19 19 19 19 17 16 16 15 15 15 16 16 16 15
10 12 15 13 15 15 14 16 17 17 17 18 19 19 19 20 19 20 20 20 21 21 22 22 22 21 21 21 21 20 19 20 20 20 17 17 16 15 16 15 16 16 15 15

GFSCGP_850_temp_009.txt.gz
Temp
25 27 27 28 29 31 31 30 30 28 27 27 27 27 25 23 23 23 22 21 21 21 21 20 21 21 21 21 20 20 20 20 19 19 19 18 19 19 18 18 18 18 18 17
25 26 27 29 29 29 29 30 30 28 27 28 26 27 26 24 23 23 23 22 21 21 21 20 20 20 20 21 21 20 20 20 20 19 19 19 19 19 18 18 18 18 17 17
26 27 26 27 28 28 29 29 29 30 27 26 27 28 25 25 24 23 23 23 22 22 21 20 20 20 21 21 21 21 21 21 20 20 19 19 19 19 18 18 18 18 17 17
26 27 26 27 28 29 29 29 30 29 28 28 28 28 27 27 24 24 23 23 22 22 21 21 21 21 21 22 21 21 21 21 21 20 19 19 19 18 17 18 18 18 17 17
26 25 26 27 28 28 30 29 29 29 29 27 26 27 30 25 25 25 25 24 23 23 22 22 21 22 22 22 22 21 21 21 21 20 20 19 19 18 18 18 18 18 17 17
27 25 28 28 29 28 27 27 26 26 28 26 29 27 30 26 27 28 27 25 24 24 23 22 22 23 23 23 22 22 22 21 21 21 20 20 20 19 19 19 19 18 18 17
25 26 27 28 28 28 28 29 27 26 26 27 27 26 29 30 29 29 29 26 25 24 23 23 22 23 24 23 23 22 22 22 21 21 21 20 20 20 21 20 19 19 19 18
24 24 26 28 29 28 27 30 28 26 26 28 23 26 29 30 30 28 28 27 26 25 24 23 24 25 24 24 24 23 22 22 22 22 22 21 21 21 22 21 20 20 19 19
24 24 26 27 28 29 27 27 31 29 24 28 28 27 28 29 29 28 28 27 26 25 25 24 24 25 25 25 24 24 23 23 23 23 22 22 22 21 22 21 21 21 20 19
25 24 27 28 28 27 28 29 27 27 27 26 27 27 30 30 31 30 28 28 27 26 25 24 24 26 26 26 25 24 24 24 24 24 23 23 22 22 22 21 21 21 21 20
27 26 26 26 27 28 27 27 26 29 28 28 27 29 29 31 31 31 29 28 27 26 25 24 23 25 27 27 26 25 24 24 24 24 24 23 23 22 22 21 22 23 21 21
26 26 25 27 28 27 29 28 28 28 26 26 28 30 30 29 31 31 31 29 27 25 25 24 23 23 26 26 26 25 25 25 25 25 25 24 23 23 23 24 20 21 22 20
23 24 24 25 27 27 26 28 29 29 29 27 28 29 30 28 27 27 27 27 25 24 23 23 23 23 23 25 26 26 26 25 25 24 24 24 24 23 23 23 22 21 22 20
24 25 25 25 26 28 26 27 27 28 28 28 27 29 30 30 28 29 27 26 24 23 23 23 23 25 26 26 27 26 26 25 23 24 24 24 24 24 23 22 20 20 21 20
24 23 24 26 28 28 28 27 27 26 28 28 29 28 31 30 30 30 30 26 23 23 22 24 26 28 28 26 25 25 24 24 23 23 23 24 24 23 22 21 19 18 17 15
22 23 23 24 26 27 27 28 28 28 28 27 30 29 31 31 29 27 27 24 24 24 25 27 29 28 28 28 28 26 25 24 23 23 23 22 22 21 20 20 19 17 16 17
22 22 23 24 26 26 25 27 28 28 29 28 28 30 31 29 27 28 28 26 25 28 30 30 32 31 29 28 27 26 25 24 23 23 22 22 21 20 20 19 17 16 16 17
20 19 20 23 23 22 26 29 29 29 28 28 29 29 29 29 29 26 25 26 26 28 29 28 27 28 28 27 27 26 25 24 24 23 22 21 20 19 19 18 17 16 16 17
21 19 18 21 23 25 26 26 27 27 28 28 27 28 28 26 24 23 25 27 28 28 27 27 27 27 27 27 27 26 26 26 25 24 23 22 21 20 19 18 16 15 17 17
19 18 20 19 21 23 22 21 20 21 26 23 23 25 26 24 28 27 23 24 27 27 28 28 28 28 27 27 27 27 27 27 26 24 23 21 20 19 17 16 16 14 16 15
18 17 19 19 19 23 18 18 19 25 27 21 22 23 23 24 22 19 20 22 23 24 24 26 26 27 27 27 27 27 26 26 25 24 23 22 20 18 18 16 15 15 14 14
20 18 15 17 19 21 17 18 23 21 19 20 20 20 20 20 19 20 20 22 24 24 25 25 25 26 26 26 26 26 25 25 23 23 21 20 18 18 17 16 15 15 14 14
18 17 15 16 17 16 15 15 16 19 19 20 20 20 19 19 19 19 20 22 23 23 24 24 25 25 25 25 25 25 25 24 24 22 20 20 17 16 16 16 15 14 13 15
17 19 18 15 13 15 15 15 16 16 16 16 17 17 20 18 19 19 19 21 22 22 23 23 23 23 23 23 24 24 24 22 21 20 18 17 16 16 15 16 14 14 14 14
14 14 16 17 15 15 15 13 14 14 15 16 16 16 17 20 17 17 19 20 20 21 22 22 22 23 22 22 22 22 20 20 20 19 18 16 17 16 16 16 14 14 15 15
10 12 16 19 15 15 14 14 15 15 14 14 17 17 17 18 17 19 19 19 19 20 20 20 21 21 21 21 20 20 19 17 17 16 15 16 16 15 15 15 15 15 15 15

GFSCGP_850_temp_012.txt.gz
Temp
28 29 29 31 33 33 34 33 33 34 33 32 32 32 31 29 28 29 27 26 26 25 25 23 22 22 21 21 20 19 19 18 18 18 19 19 19 19 18 18 18 17 17 18
29 28 31 32 33 33 33 33 33 34 32 32 33 32 32 31 29 29 28 27 26 26 25 24 23 22 22 21 20 19 19 18 19 19 19 19 20 20 19 19 18 17 17 17
29 30 31 31 32 32 33 33 33 33 32 32 33 31 32 32 30 29 28 28 27 26 26 25 24 23 23 22 20 20 19 19 18 19 19 18 18 18 18 19 18 18 17 17
29 32 30 30 30 32 32 34 34 33 32 31 32 31 33 33 32 30 28 28 28 27 26 25 24 23 23 22 21 20 19 20 19 18 19 19 20 20 20 20 19 18 17 17
29 29 29 29 30 32 32 34 33 33 33 32 32 31 33 33 32 32 31 29 28 28 27 26 25 24 23 22 22 21 21 21 20 19 19 19 19 20 20 19 18 17 17 16
30 30 30 30 32 32 33 33 33 33 33 31 32 32 32 33 32 34 33 31 29 28 27 26 25 24 23 23 22 21 21 22 21 20 20 19 19 19 20 19 19 18 18 17
28 29 30 31 31 32 32 32 30 29 30 30 33 32 32 34 35 35 35 33 30 29 28 27 25 25 24 23 22 22 21 22 21 21 21 21 18 18 18 18 18 19 19 18
27 27 29 30 31 31 31 32 31 28 30 31 32 30 33 34 34 34 34 34 31 29 29 28 26 25 24 23 23 22 21 22 22 22 22 21 21 19 19 19 20 19 19 18
28 28 31 31 31 32 31 31 33 32 33 32 33 32 33 34 34 34 34 33 32 30 30 28 27 26 25 24 23 22 22 23 23 22 22 22 21 21 20 19 19 19 18 19
29 27 30 30 31 32 32 32 31 32 30 29 31 32 32 33 34 35 34 33 33 31 30 30 28 27 26 25 24 23 22 22 23 22 23 22 22 22 21 20 21 21 19 21
30 28 29 30 29 30 31 30 31 32 32 30 30 32 34 33 34 35 36 34 34 32 30 30 29 28 26 26 25 24 23 22 22 22 23 22 22 22 22 22 23 22 22 22
29 29 27 29 31 32 32 31 31 30 29 31 32 32 36 35 35 35 35 36 35 33 31 29 29 28 27 26 26 25 24 23 22 24 24 23 22 22 22 23 23 22 22 23
30 28 27 28 30 30 30 31 31 32 32 31 30 31 35 35 34 34 33 34 33 31 30 29 29 28 27 27 26 26 25 24 24 23 22 22 22 21 22 24 22 21 21 21
26 29 27 28 28 30 29 29 31 31 32 30 31 32 33 34 34 34 35 34 33 30 29 28 28 27 27 26 26 25 25 25 25 24 23 21 22 21 20 21 21 22 21 21
27 26 28 29 30 30 30 30 30 30 30 30 31 32 33 33 34 34 34 34 33 29 27 27 27 26 25 25 25 24 25 24 25 24 23 22 20 19 18 18 21 22 20 20
27 25 27 27 29 29 29 30 30 30 30 30 31 31 34 34 33 33 34 34 33 30 28 27 26 26 25 25 24 24 23 24 23 23 23 22 20 19 18 18 19 20 20 19
25 26 26 25 29 29 28 29 30 31 31 31 30 31 33 34 33 34 34 33 33 31 29 27 27 26 25 24 24 23 22 22 22 22 21 21 20 18 18 18 18 17 18 18
24 24 26 26 27 24 29 31 31 31 31 32 31 32 32 33 33 33 33 34 34 31 30 28 27 26 25 25 24 23 23 25 24 23 21 20 19 18 18 19 19 17 17 17
25 24 25 25 25 28 28 28 28 29 29 32 32 32 33 33 32 31 29 29 30 30 29 28 27 26 24 24 24 24 23 24 24 24 23 22 22 19 18 19 19 18 16 16
26 24 25 25 24 25 24 23 22 24 26 31 32 31 32 32 30 32 28 27 27 28 27 26 25 24 25 24 24 24 23 25 24 24 24 23 21 18 18 19 17 16 16 15
23 24 25 25 24 25 21 22 23 23 27 24 31 31 32 32 30 25 24 25 25 26 25 24 24 23 23 23 23 23 22 22 22 25 25 24 20 18 18 17 16 16 15 14
23 23 25 25 23 23 19 22 22 21 22 24 26 28 29 26 24 23 23 23 23 23 23 23 23 22 22 22 22 22 22 24 25 25 23 22 22 19 17 17 16 16 15 14
24 25 24 24 24 19 18 17 18 20 22 24 24 24 24 23 23 22 22 23 23 23 24 23 22 21 21 22 23 24 26 26 25 24 22 22 20 19 17 16 16 15 14 14
23 23 23 20 18 18 18 17 18 19 20 21 22 23 23 22 22 22 22 22 21 21 22 22 22 23 24 24 24 24 24 24 23 22 21 19 18 17 16 15 15 14 14 14
18 19 21 19 17 16 15 16 17 18 18 18 19 19 19 20 20 19 19 20 19 19 20 20 21 23 23 23 24 24 23 22 19 18 16 16 15 15 15 15 14 14 14 14
11 14 21 20 16 17 13 14 15 16 17 17 17 17 18 18 17 17 18 17 18 18 18 18 20 21 21 21 21 20 19 16 16 15 16 16 16 15 14 14 14 13 13 14

GFSCGP_850_temp_015.txt.gz
Temp
29 30 30 32 33 34 35 35 35 36 36 34 34 34 34 33 32 32 31 30 29 28 27 26 25 25 24 23 22 21 20 20 20 19 19 19 20 21 21 21 20 19 19 17
31 30 33 33 34 34 35 35 35 36 35 35 34 34 35 34 33 32 32 30 30 29 28 27 26 25 24 23 22 21 20 20 19 19 19 20 21 22 21 20 20 19 19 18
31 32 33 33 34 34 34 35 35 36 35 35 35 34 35 35 33 32 32 31 30 30 29 28 26 25 25 24 23 21 20 20 19 20 20 20 20 21 21 21 20 19 18 18
32 34 33 33 33 34 33 35 36 36 33 32 35 33 34 35 35 34 32 32 31 30 30 29 27 26 25 24 23 22 21 20 20 19 20 20 20 21 22 22 22 21 19 19
31 32 33 32 33 34 34 36 35 36 35 33 34 34 35 36 35 35 35 33 32 31 30 29 28 27 26 25 24 22 21 20 20 20 20 20 20 22 22 22 21 19 19 18
32 33 33 34 34 34 35 35 35 35 35 33 34 34 34 33 36 36 36 34 33 32 31 30 29 28 26 26 24 23 21 20 20 20 20 20 21 21 22 21 20 20 19 18
31 32 33 34 33 34 33 33 32 32 33 32 35 34 33 37 37 36 37 36 34 32 31 30 29 28 27 25 25 23 22 21 20 20 20 20 20 20 20 20 20 21 21 20
30 30 32 33 32 32 33 34 32 30 32 33 35 34 35 37 37 37 36 36 36 33 32 31 30 28 27 26 25 24 22 21 21 20 20 20 20 20 20 20 21 20 21 21
31 30 33 33 33 33 33 33 35 34 34 34 35 35 37 37 37 37 36 36 36 34 33 31 30 29 27 26 25 24 23 21 21 20 20 20 20 20 21 21 21 20 20 21
31 30 33 33 33 33 33 35 33 35 31 31 34 34 34 35 35 36 36 36 36 35 33 32 31 29 28 26 25 24 23 22 21 21 21 20 20 20 21 20 20 20 20 20
32 31 31 33 32 31 32 33 34 34 34 32 32 34 37 36 35 35 36 36 36 35 34 33 32 30 28 27 26 25 24 23 22 21 21 21 21 20 21 22 21 20 20 19
32 31 30 31 33 33 33 32 33 34 31 33 34 34 38 37 36 36 36 36 36 36 34 33 32 31 30 28 27 26 25 24 23 22 22 22 21 21 20 22 20 20 22 19
32 30 29 30 32 33 32 32 33 34 34 33 33 33 37 37 37 36 36 35 36 35 35 34 33 32 30 29 28 27 26 26 25 23 22 22 22 22 22 21 21 20 21 21
29 31 29 30 30 32 31 31 32 33 33 32 33 33 35 36 36 36 35 35 35 35 33 33 33 32 31 30 28 27 27 27 26 25 24 23 22 22 21 21 20 20 21 22
29 28 30 31 31 32 32 32 32 32 32 32 33 33 34 35 36 36 35 35 35 35 34 32 32 32 31 30 28 27 27 27 27 26 25 24 23 21 21 21 20 20 19 20
29 27 29 29 31 31 31 32 32 32 32 32 33 33 36 36 36 35 35 35 34 34 35 32 31 30 30 29 28 27 27 27 27 26 25 25 23 22 21 21 20 19 19 18
28 28 27 27 29 30 29 31 32 32 33 32 31 32 34 34 35 35 35 35 34 34 34 34 31 29 29 28 27 27 26 26 26 26 25 25 24 23 22 20 20 19 19 17
27 27 28 27 28 26 30 33 32 32 32 33 33 33 33 34 34 34 34 34 34 34 34 34 32 30 29 28 27 26 26 25 25 25 24 24 23 22 21 20 20 19 18 17
28 27 26 26 27 28 29 29 29 28 29 33 33 33 34 33 33 33 33 34 34 34 34 34 32 30 28 28 27 26 25 24 24 23 23 23 22 21 20 19 18 18 18 17
26 26 26 27 26 26 29 27 27 29 28 31 31 31 33 34 33 34 33 33 33 33 33 33 31 30 28 27 27 25 25 23 23 23 22 21 21 21 20 19 18 18 17 17
25 25 25 26 26 28 26 27 27 26 27 27 27 27 29 32 34 33 32 33 33 31 31 31 29 29 26 26 26 25 24 23 23 23 22 21 20 20 19 18 18 17 16 16
24 25 26 26 25 25 25 26 26 24 24 26 27 27 28 30 32 30 28 28 29 29 29 28 27 26 25 25 25 24 24 23 23 22 21 20 20 19 18 18 18 17 16 16
26 27 27 26 25 22 22 23 22 22 24 25 26 27 29 30 28 27 26 26 26 26 26 26 25 24 24 23 23 23 23 22 22 21 21 20 19 18 18 18 17 16 16 16
19 27 28 24 22 22 21 21 21 22 22 23 24 26 26 26 26 25 25 25 25 24 24 24 23 23 22 22 22 21 22 20 20 20 20 19 18 17 17 17 16 16 16 15
12 15 24 22 21 20 20 20 20 20 21 20 19 19 21 23 23 22 22 23 23 23 23 22 21 20 20 19 19 19 19 19 18 19 19 17 17 16 16 16 15 15 15 15
11 12 16 18 21 20 18 18 19 19 19 19 18 18 18 18 18 19 19 20 20 20 20 20 20 19 19 18 18 18 18 17 17 17 16 16 16 16 15 15 14 14 14 14

GFSCGP_850_temp_018.txt.gz
Temp
30 30 29 31 32 33 34 34 35 35 35 35 29 23 23 27 33 33 31 31 30 29 28 27 26 26 25 24 23 22 22 22 21 20 20 20 20 20 20 21 20 20 20 20
30 29 31 33 33 33 33 34 35 36 33 34 34 28 28 30 33 33 32 31 31 30 29 28 27 26 25 24 23 22 21 21 21 20 20 20 20 21 21 21 21 20 19 20
30 31 33 33 33 32 33 33 34 35 36 35 35 34 34 34 34 34 33 32 31 30 30 28 27 26 26 25 24 23 22 21 20 20 20 20 19 20 20 21 21 21 20 19
31 33 33 32 33 33 32 35 35 35 35 32 35 31 33 34 34 34 33 33 32 31 30 29 28 27 26 25 24 23 22 21 20 20 20 20 20 20 21 21 21 21 20 19
31 32 32 32 33 34 33 35 35 35 34 33 33 32 34 34 34 34 34 33 33 32 31 30 28 27 26 26 24 23 22 21 21 20 20 20 20 21 22 22 22 21 20 19
32 33 34 34 34 34 35 34 35 35 35 33 33 32 33 34 32 34 35 34 34 33 32 31 30 28 27 26 25 23 22 22 21 20 21 20 20 21 21 22 22 21 20 20
31 32 34 34 33 34 34 33 32 32 33 32 35 33 32 34 34 34 30 34 34 33 33 31 30 29 27 26 25 24 23 22 22 21 20 21 20 21 21 22 22 21 21 19
29 30 32 34 33 33 33 33 32 29 31 32 35 34 35 36 34 35 31 35 35 34 33 32 31 30 27 26 26 24 23 23 22 21 20 21 21 21 22 21 21 21 21 20
31 30 34 34 34 34 33 32 34 33 34 33 35 36 37 37 35 35 36 37 37 35 34 33 31 30 29 27 26 25 24 23 23 22 21 21 21 21 21 21 21 21 21 21
32 31 33 34 34 34 33 34 32 32 30 30 34 34 35 36 34 35 34 36 37 36 34 33 32 30 29 27 26 25 24 23 23 22 22 21 22 22 22 21 21 21 20 21
32 32 32 34 32 32 32 32 32 33 33 32 32 34 37 35 35 35 36 36 36 36 35 34 33 31 29 28 26 25 24 23 22 22 21 21 22 23 23 21 20 21 21 21
32 31 31 32 34 34 33 32 32 31 30 33 33 35 38 37 36 37 37 36 36 36 36 35 33 32 30 28 27 25 24 23 22 22 21 21 22 23 23 22 21 21 20 21
33 31 29 30 33 34 33 33 33 32 33 31 32 33 37 34 33 35 36 36 36 36 36 35 34 32 31 29 28 26 25 24 23 21 22 21 22 23 24 23 23 21 21 21
32 31 30 30 30 32 32 32 33 32 31 32 33 34 35 33 33 34 35 36 36 35 35 34 34 33 31 30 28 27 26 25 24 22 22 22 22 24 25 23 23 23 22 22
31 28 30 31 32 33 33 32 32 32 32 31 33 34 35 35 34 34 36 35 35 35 34 34 34 33 32 31 29 28 27 26 25 24 22 22 23 23 23 22 22 21 21 21
31 27 29 29 31 31 32 33 33 33 32 32 33 33 36 36 36 35 33 34 35 35 35 33 33 33 33 31 30 28 27 27 26 25 24 24 23 22 22 21 21 20 20 20
28 28 27 27 30 31 30 31 32 33 33 33 32 33 35 34 34 34 35 35 34 35 35 34 33 32 32 31 30 28 28 27 27 26 26 25 25 23 23 22 21 21 20 20
28 26 27 28 28 26 31 33 33 32 33 34 33 33 33 33 33 33 33 34 34 35 34 34 34 32 31 31 30 28 27 27 27 27 27 26 25 24 23 22 22 21 20 20
29 27 26 27 27 28 30 32 32 32 32 33 33 32 34 34 34 33 33 33 33 34 34 34 34 34 32 30 30 29 28 27 27 27 27 26 25 24 23 22 22 21 20 20
28 26 26 26 26 26 30 32 31 30 28 30 30 30 31 31 30 32 34 33 33 33 33 34 34 34 32 30 29 29 28 27 26 26 26 26 25 24 22 22 21 20 20 19
24 24 25 26 25 27 29 30 29 26 28 28 28 28 29 29 29 29 30 32 33 33 33 33 33 32 31 30 28 28 27 26 25 25 25 24 23 23 22 21 20 20 19 18
22 23 24 25 25 25 28 26 25 26 26 27 27 27 28 28 29 29 30 31 31 31 33 33 31 30 30 29 28 27 26 25 24 24 23 22 22 21 21 21 20 18 18 17
22 24 24 25 26 24 26 26 24 25 26 25 25 26 28 28 29 30 29 29 28 29 30 30 29 28 26 27 27 25 25 24 23 22 21 21 21 20 20 20 19 18 17 16
22 18 22 24 25 25 24 24 24 25 23 22 22 23 24 27 27 27 27 27 26 26 26 27 26 25 24 25 24 24 24 23 22 21 21 20 20 20 19 18 18 17 16 16
14 14 17 24 23 23 23 23 23 22 20 19 18 18 19 21 19 22 22 23 23 23 24 24 23 23 23 22 22 21 21 21 21 21 21 20 19 18 18 17 16 16 16 16
11 13 14 17 14 20 20 20 20 20 20 19 18 17 17 18 17 17 18 20 21 21 21 21 21 20 20 20 20 20 20 21 21 21 19 18 17 16 16 16 16 15 15 15

GFSCGP_850_temp_021.txt.gz
Temp
28 24 25 25 27 28 29 29 29 32 33 27 27 28 28 30 28 28 28 28 27 27 27 26 26 26 25 24 24 23 22 22 21 21 21 20 20 20 20 21 21 20 20 20
25 25 26 29 29 29 29 29 29 31 33 28 26 27 27 27 28 27 29 28 28 27 27 27 26 26 25 25 24 23 23 22 21 21 21 20 20 20 20 20 20 20 20 20
25 27 29 29 29 29 29 28 29 30 32 30 26 26 24 27 30 29 30 29 28 28 28 27 26 26 25 25 24 24 23 22 22 21 20 20 20 20 20 20 20 21 21 20
27 29 29 28 28 29 27 30 31 31 31 28 29 26 24 27 29 29 30 30 29 28 28 28 27 26 26 25 25 24 23 22 22 21 20 20 21 21 21 21 21 21 21 20
27 28 28 28 29 30 29 31 31 31 30 29 30 28 26 27 28 29 30 30 30 29 29 28 27 27 26 25 25 24 24 23 22 21 21 20 21 21 21 20 21 21 21 20
28 31 29 29 31 31 31 30 30 30 30 28 28 29 26 28 29 30 31 31 31 30 30 29 28 27 26 26 25 25 24 23 23 22 21 20 20 20 21 21 21 21 21 21
28 28 30 31 29 30 30 27 27 26 27 26 27 28 26 30 31 31 32 32 32 31 30 29 28 27 27 26 25 25 24 24 23 22 21 20 20 20 21 21 21 21 21 20
25 25 29 30 30 28 29 28 27 23 26 27 27 28 29 32 33 33 33 33 33 33 30 30 30 28 27 26 26 25 24 24 23 23 22 21 20 21 21 21 20 21 21 21
25 25 30 31 31 30 28 28 29 26 26 25 28 29 31 31 33 32 32 33 32 33 31 30 30 29 27 26 26 26 24 24 24 23 22 22 21 21 21 21 21 21 21 21
26 24 28 31 31 31 30 30 27 28 25 26 28 27 28 29 31 29 29 30 32 33 33 31 30 30 28 28 27 26 25 24 24 23 23 22 22 21 21 22 21 21 20 21
28 26 27 29 29 29 28 28 27 27 27 26 25 28 29 29 30 30 31 32 34 33 32 32 31 30 30 28 27 26 26 24 24 24 23 23 22 22 21 21 22 21 21 21
28 26 25 27 29 31 30 28 26 26 23 24 26 27 30 31 31 32 32 33 35 34 33 32 32 30 29 28 27 27 26 25 24 24 24 23 23 22 22 22 22 22 21 20
29 27 24 26 27 29 30 30 28 28 24 23 23 27 31 32 31 34 32 33 35 35 33 32 31 30 29 29 28 26 26 26 25 24 24 23 23 23 23 23 23 22 22 21
25 29 27 26 26 27 27 29 29 28 26 27 27 27 28 31 29 31 34 35 35 34 35 33 31 30 29 29 28 27 26 26 26 25 24 24 23 24 24 24 24 23 23 21
24 25 28 28 28 29 29 29 30 28 28 26 27 27 27 28 27 27 34 35 34 35 35 33 31 30 30 29 29 28 27 26 26 25 24 24 24 24 24 23 24 24 22 22
17 21 25 27 29 29 29 30 30 30 30 29 28 28 28 28 32 29 31 32 35 35 34 34 33 32 32 31 30 28 27 26 26 26 25 25 23 23 23 23 23 22 22 21
16 18 22 23 26 27 27 29 29 29 30 29 28 29 28 28 29 30 31 32 34 34 33 34 34 33 32 32 32 29 29 27 26 27 26 25 24 23 23 22 22 21 21 21
17 18 20 22 24 23 27 29 30 30 29 29 29 27 27 26 31 32 33 33 32 33 33 34 34 33 33 32 32 32 29 27 27 27 26 26 25 25 24 23 22 21 21 21
21 19 20 20 23 25 27 28 29 28 28 30 28 28 29 29 31 30 32 33 33 34 33 33 33 34 33 32 32 31 29 28 27 27 27 26 26 26 24 24 23 22 21 21
22 22 21 20 21 22 26 28 30 29 25 26 25 25 26 27 24 23 29 29 30 32 33 33 33 32 33 32 32 31 30 28 27 27 27 27 26 26 25 24 23 23 22 21
19 20 21 21 22 23 26 28 28 24 23 24 26 26 25 24 24 28 29 30 30 31 32 33 33 33 33 32 31 30 30 29 29 27 26 26 26 26 25 24 23 22 21 21
15 12 17 20 21 22 26 26 26 21 25 26 26 27 27 27 28 28 29 30 30 30 30 32 33 33 33 33 32 30 29 29 27 26 27 26 26 25 24 23 22 22 22 21
14 14 13 19 20 21 23 22 25 23 22 22 23 25 26 24 24 25 25 26 27 28 30 31 32 32 32 33 31 30 29 28 26 26 25 25 24 24 23 22 22 23 20 19
14 13 14 16 19 21 22 23 21 20 19 19 20 20 23 22 23 24 24 24 25 25 27 28 28 28 27 28 29 28 27 27 25 24 24 23 23 22 21 21 22 20 19 18
11 12 14 15 15 14 19 20 19 19 18 18 18 18 19 21 21 22 22 21 22 23 23 25 26 26 26 26 26 25 25 25 24 23 22 21 21 21 20 20 19 18 18 17
10 12 13 13 11 12 14 17 18 18 17 17 18 17 17 19 18 20 19 20 21 22 22 23 22 23 23 23 23 23 23 23 22 22 22 22 20 19 19 18 18 17 17 16

GFSCGP_850_temp_024.txt.gz
Temp
25 22 22 22 22 25 25 25 25 27 29 26 26 26 27 26 25 25 24 24 24 25 25 26 25 25 23 23 23 23 22 21 21 21 20 20 20 20 20 20 20 20 20 20
23 22 23 24 24 25 25 25 25 26 28 26 25 28 27 26 26 26 25 25 24 25 25 26 25 25 24 24 23 23 22 22 21 21 21 21 21 20 20 20 20 20 20 20
22 23 25 25 25 25 25 25 26 26 28 27 26 25 26 26 27 26 26 25 25 25 25 26 26 26 25 24 24 23 23 23 22 21 21 21 20 20 20 20 20 21 20 20
22 25 25 26 26 25 22 27 28 27 27 25 26 23 24 25 24 25 27 26 26 25 25 26 26 26 26 25 25 24 24 23 23 22 21 20 20 20 20 20 20 20 21 20
23 25 25 25 26 26 25 26 27 27 26 25 26 24 24 25 25 25 26 27 26 26 26 26 26 26 26 25 25 25 24 23 23 23 22 21 20 21 21 21 21 20 20 20
25 27 26 26 27 27 28 27 25 26 25 23 25 26 23 25 26 27 28 28 27 26 26 27 27 27 26 26 25 25 24 24 23 23 22 21 21 21 21 21 20 21 21 20
25 25 26 27 25 26 26 23 22 23 23 23 24 24 26 26 27 29 29 29 28 27 27 27 26 26 26 25 25 25 25 24 23 23 22 22 21 21 21 21 20 20 20 20
23 23 25 26 26 26 23 24 23 22 21 22 24 23 27 28 29 30 31 30 29 28 28 27 27 27 27 26 26 25 25 24 24 23 23 22 21 21 21 21 20 21 21 21
20 23 26 28 27 27 25 23 25 22 22 21 23 25 26 27 28 29 30 30 29 29 28 28 27 27 27 26 26 26 25 25 24 24 23 23 22 21 21 21 20 21 21 21
24 21 24 28 27 28 25 25 25 20 23 23 23 24 26 27 26 27 29 30 30 30 29 29 28 28 27 27 27 27 26 25 25 24 24 23 23 22 21 21 21 20 21 20
25 23 24 25 25 25 26 25 23 23 23 24 21 26 25 26 25 26 28 31 31 30 30 29 29 28 29 28 26 27 26 25 25 25 24 24 23 22 22 22 21 20 20 20
23 24 23 25 25 27 27 26 23 25 21 22 26 27 30 27 27 25 27 31 31 31 30 31 30 28 27 27 26 27 26 26 25 25 25 24 24 23 22 22 22 21 20 20
17 21 22 21 22 23 25 26 27 19 20 24 21 25 27 26 27 30 29 31 31 30 30 31 30 28 28 27 27 27 27 27 26 25 25 24 24 23 23 23 23 22 21 21
14 18 21 24 25 25 24 27 26 26 26 25 25 25 27 26 27 25 31 34 34 32 33 32 30 29 29 28 27 27 27 27 27 25 25 24 24 24 24 24 23 23 22 21
11 12 20 20 24 27 26 26 27 26 27 26 27 23 24 24 24 26 32 30 31 32 32 32 30 28 29 29 27 27 28 27 27 26 25 25 25 25 24 24 24 23 23 22
10 11 14 19 23 27 27 27 28 27 27 27 25 24 24 26 27 28 30 33 30 33 34 34 32 32 30 29 29 28 28 28 27 26 27 26 25 25 24 24 24 24 23 23
9 10 12 14 22 26 25 27 26 27 27 27 25 25 23 25 25 25 31 28 30 31 32 33 31 31 28 30 31 29 29 28 27 27 27 26 26 25 25 24 24 24 24 23
11 12 12 14 17 22 26 28 29 26 27 26 27 26 24 26 30 32 33 32 32 33 33 32 31 31 31 32 32 32 29 28 27 27 27 27 26 26 25 25 25 24 23 23
13 13 14 14 16 22 26 25 27 25 26 25 25 25 25 27 27 26 29 31 32 34 34 33 33 32 32 30 32 30 28 27 26 26 27 27 27 26 25 25 26 24 22 22
17 17 16 17 17 20 24 27 25 25 23 24 23 23 24 24 22 21 29 29 30 32 33 33 33 32 31 31 32 30 29 29 28 28 29 28 27 26 26 26 25 24 23 23
14 14 15 16 17 18 23 26 27 24 22 23 23 23 23 22 22 27 28 29 30 31 32 32 32 33 33 32 31 30 31 29 31 31 29 26 27 26 27 25 24 24 24 22
13 13 13 16 16 20 18 20 24 21 22 24 24 25 24 24 25 26 28 29 30 30 31 31 32 32 33 33 32 32 30 32 32 30 26 25 25 26 25 25 24 23 22 22
12 13 13 13 14 14 15 16 19 21 21 20 23 24 25 24 24 26 26 26 27 29 29 30 31 32 32 32 32 32 32 31 31 28 27 25 24 24 25 24 23 22 22 22
12 12 13 14 14 13 12 13 15 17 18 19 21 22 22 22 22 23 25 26 27 27 27 29 30 31 32 32 31 31 32 32 30 29 26 25 24 24 23 23 23 23 22 21
11 12 12 13 13 12 13 12 15 15 17 18 17 19 19 20 21 22 23 24 25 25 24 24 25 25 24 26 32 31 30 28 26 27 25 24 23 22 22 21 20 21 22 22
10 11 12 12 11 11 11 13 15 15 15 16 18 17 17 19 20 20 20 21 21 22 22 23 22 21 23 21 20 26 26 26 26 24 25 24 23 22 20 20 20 21 21 19

GFSCGP_850_temp_027.txt.gz
Temp
22 20 18 20 20 22 24 24 24 25 27 26 24 23 24 24 24 23 22 22 21 21 23 22 22 22 22 22 22 22 21 21 21 21 20 19 19 19 19 19 20 20 20 20
20 21 21 22 21 22 23 23 23 24 26 25 24 24 25 24 24 24 23 23 22 22 21 22 23 22 22 23 23 22 22 22 21 21 21 20 20 20 20 20 20 20 20 19
21 21 22 23 23 22 22 22 24 24 26 26 24 24 23 24 25 24 24 24 24 23 23 23 24 24 23 23 23 23 23 22 21 21 21 20 20 20 20 20 20 20 20 20
20 22 23 22 23 22 20 23 25 26 25 23 24 21 22 24 24 24 24 24 24 24 24 24 24 25 25 25 24 24 23 22 22 21 21 21 21 21 20 20 20 20 20 20
21 22 23 22 24 22 24 25 24 25 24 24 24 23 22 23 23 23 24 24 24 24 24 24 25 25 25 25 25 24 24 23 22 22 22 21 21 21 21 21 20 20 20 20
23 24 24 23 24 25 25 25 24 23 20 20 24 23 24 22 24 25 25 25 25 24 24 24 25 25 25 25 25 25 24 24 23 23 22 22 21 21 21 20 20 20 20 20
22 23 24 24 23 23 23 20 19 20 20 22 23 21 26 24 26 27 26 26 26 25 25 25 24 24 24 25 25 25 25 24 23 23 23 22 22 22 21 21 20 21 20 20
20 20 23 23 23 23 21 21 16 19 19 22 21 21 24 27 28 27 28 28 27 26 25 25 26 26 25 25 25 25 25 25 24 24 23 23 23 22 22 21 21 21 20 20
19 21 24 25 25 25 22 21 22 20 20 19 20 22 24 26 25 25 27 28 27 27 26 26 26 27 26 25 25 26 26 25 25 24 24 23 23 22 22 21 21 21 20 20
20 21 21 24 25 24 24 21 23 15 21 21 20 21 23 24 26 24 25 27 28 27 27 28 27 26 27 26 26 26 26 26 26 25 24 24 24 23 22 21 21 21 21 20
19 19 22 23 22 23 22 22 21 19 18 22 20 23 24 24 24 24 24 27 29 28 28 28 29 27 27 27 25 26 26 25 25 25 25 24 24 23 22 22 22 21 21 21
15 15 21 23 22 25 24 24 20 20 20 20 24 23 27 25 25 23 25 29 31 29 30 29 30 28 26 26 26 25 26 26 26 26 25 25 24 24 23 22 22 22 21 21
12 12 17 20 22 22 22 23 24 22 19 23 22 22 23 24 25 27 27 31 30 29 29 28 28 28 27 27 26 26 25 27 26 25 25 25 25 24 23 23 22 23 22 21
11 10 14 17 20 21 21 23 23 23 23 24 24 24 25 24 23 24 27 30 30 30 30 29 29 29 28 28 28 27 26 26 26 26 25 25 25 25 24 23 23 23 23 22
9 9 12 15 16 18 20 22 25 22 24 24 25 21 23 22 22 23 30 30 29 30 30 30 30 30 29 28 27 27 26 26 26 26 25 26 26 26 25 24 23 23 23 23
7 10 10 13 18 19 21 23 24 25 25 24 24 22 22 25 26 25 29 32 29 31 30 30 30 30 31 31 30 28 26 26 26 27 27 26 26 26 25 24 24 23 23 23
8 9 9 11 14 16 19 22 24 25 25 25 24 24 22 23 22 23 28 29 30 32 32 29 31 33 33 33 32 30 30 28 26 28 27 26 27 26 26 25 24 23 23 23
8 8 9 10 12 17 22 24 26 25 25 23 25 23 23 23 29 31 32 33 31 33 32 30 31 31 32 33 31 32 29 28 28 28 26 25 27 27 26 25 25 24 23 24
9 10 10 11 12 15 21 23 24 23 23 23 25 24 23 25 26 26 29 30 31 33 34 33 33 32 33 33 33 29 27 28 27 28 28 27 28 28 27 26 25 24 23 23
10 10 13 11 13 15 19 16 17 19 24 23 22 23 23 22 21 24 29 30 31 31 32 32 33 33 33 33 30 28 27 28 28 30 30 29 29 27 28 27 26 25 24 24
9 9 10 12 13 14 15 15 16 20 24 21 22 23 20 22 25 28 29 28 29 30 30 31 32 32 33 32 30 30 28 27 31 32 31 27 27 27 27 27 25 25 24 22
10 11 10 12 13 12 14 15 14 14 14 20 22 23 23 26 26 27 27 28 29 29 30 30 30 31 32 32 30 29 28 33 32 30 28 28 28 27 25 25 24 24 23 21
10 11 10 13 14 13 13 13 12 12 13 15 24 23 24 24 25 26 26 28 29 29 30 29 29 28 28 28 27 26 30 32 31 28 29 29 28 26 24 24 25 22 21 20
9 10 11 13 13 12 13 13 13 13 14 16 18 22 22 23 23 24 26 27 27 27 28 28 29 28 26 26 27 27 27 26 26 27 30 29 28 26 22 21 21 21 19 19
9 10 12 13 12 14 13 12 12 13 14 16 16 17 17 19 19 20 21 22 22 23 24 25 25 26 26 26 26 25 25 25 25 25 24 24 24 22 20 21 20 20 19 19
10 11 11 12 11 11 11 11 12 13 13 14 15 16 17 18 19 20 21 20 21 21 21 22 22 23 23 23 23 22 22 21 22 20 22 21 20 21 20 19 18 18 18 18

GFSCGP_850_temp_030.txt.gz
Temp
20 18 18 18 19 21 21 22 24 24 26 25 24 23 21 22 22 22 21 20 20 21 21 22 22 21 21 21 21 21 20 21 20 20 20 20 20 20 20 20 20 20 20 20
17 19 19 20 19 21 21 22 21 23 24 25 25 24 22 22 22 22 21 21 20 21 20 22 22 21 22 22 22 22 22 21 21 21 21 20 20 20 20 19 19 20 20 19
20 19 20 21 20 20 20 21 22 23 25 24 23 22 22 22 23 23 22 21 21 21 21 22 23 22 22 22 22 22 22 22 22 21 21 20 20 20 20 19 19 19 20 20
19 21 22 20 21 20 17 20 23 23 22 22 23 20 21 21 22 23 23 22 22 22 21 22 23 22 22 23 23 22 22 22 22 21 21 21 21 20 20 20 19 19 19 20
20 20 21 21 22 21 22 23 22 23 22 22 22 21 21 21 21 22 23 23 22 23 23 23 24 24 23 23 23 23 23 23 22 22 22 21 21 21 21 20 20 19 19 20
21 22 22 21 22 22 22 23 20 18 18 19 21 21 20 19 23 23 24 23 23 23 23 23 25 24 24 23 23 23 23 23 23 22 22 21 21 21 21 20 20 20 20 20
21 22 22 22 22 21 22 19 18 19 19 20 20 20 25 22 23 24 24 24 24 23 23 23 23 23 24 24 24 24 24 24 23 23 23 22 22 21 21 21 21 21 20 20
19 19 22 21 22 21 19 18 15 18 17 20 18 20 22 24 25 25 26 26 25 24 24 23 24 24 24 25 25 25 25 24 24 24 23 23 22 22 22 21 21 21 21 20
18 19 22 23 22 23 19 20 19 18 18 17 18 20 24 24 23 24 25 26 26 25 25 24 24 25 26 25 26 25 25 25 25 25 24 24 23 22 22 22 21 21 21 21
20 19 20 23 23 22 21 19 20 14 19 18 18 20 22 22 24 23 22 25 27 27 26 26 25 24 25 26 27 26 26 26 26 26 25 24 24 24 23 22 22 21 21 20
13 18 21 20 21 23 20 20 18 19 16 18 18 20 19 23 22 25 25 26 28 29 28 27 26 27 26 26 26 26 26 26 26 26 25 25 24 24 23 23 23 22 21 20
12 12 18 20 22 23 24 22 18 19 18 15 17 21 23 22 24 22 25 28 28 30 31 30 29 27 26 25 25 26 26 26 26 27 26 25 25 25 24 24 23 22 21 21
12 11 15 19 21 22 21 22 20 22 17 20 20 22 26 23 23 27 26 29 28 30 30 29 27 26 27 26 25 26 26 28 27 26 26 26 25 25 25 24 24 23 22 21
11 9 12 15 16 16 17 21 20 21 22 22 22 22 23 23 23 23 26 29 31 31 31 30 28 27 27 27 28 27 27 27 27 26 26 26 26 26 26 25 25 24 23 22
9 11 12 13 13 15 16 17 19 19 22 22 24 23 22 22 20 23 31 29 29 30 31 31 30 28 28 28 28 27 28 27 26 26 25 27 26 26 26 26 25 25 24 23
6 10 10 11 14 15 15 17 19 20 20 20 22 21 21 23 26 24 27 28 29 31 32 32 31 29 28 28 28 28 28 28 27 26 27 26 25 26 26 26 25 25 24 23
7 8 9 10 12 13 15 19 19 20 21 21 21 22 23 21 21 22 26 29 30 31 32 32 31 32 30 29 29 29 29 28 28 28 28 27 25 26 26 26 26 25 25 24
6 7 8 9 11 13 18 17 20 22 22 21 21 22 22 23 27 30 31 30 31 31 31 31 32 32 31 31 30 30 29 30 29 29 27 26 26 27 26 26 26 26 25 25
7 6 8 9 10 14 16 16 15 14 17 21 22 22 21 25 25 25 27 29 30 32 32 32 33 33 32 31 31 30 29 28 28 25 25 27 28 27 26 27 27 26 26 25
7 9 9 8 10 12 16 15 16 15 15 16 17 22 23 20 21 23 31 29 30 32 31 32 32 31 31 31 30 29 29 29 29 28 29 28 28 28 28 29 27 26 25 25
5 6 7 9 10 12 14 13 15 17 19 14 13 13 20 21 26 30 31 29 29 30 31 30 30 30 29 30 30 30 29 29 30 29 27 27 26 27 29 26 26 25 24 24
6 6 6 7 9 11 14 15 16 14 13 13 12 13 15 23 28 28 28 26 26 28 29 29 30 30 30 30 29 27 27 29 26 25 25 25 26 27 27 25 24 21 21 21
7 8 8 9 10 11 16 14 14 12 12 13 12 13 17 20 25 25 24 24 25 26 27 27 28 28 27 27 25 24 23 23 23 24 24 25 24 23 22 23 22 23 22 22
7 8 9 10 12 12 13 13 12 12 13 13 12 14 17 21 19 20 21 21 21 23 23 24 25 25 25 25 25 24 24 24 23 23 23 23 22 22 21 20 21 21 23 28
6 5 7 8 11 12 12 12 13 12 14 13 14 16 15 17 17 18 18 20 20 21 21 22 23 23 22 22 23 23 23 24 24 23 23 22 21 21 21 20 20 20 20 19
5 6 6 8 11 12 11 11 12 12 12 12 14 16 15 16 17 18 18 19 20 21 22 23 22 22 21 21 22 22 23 23 23 24 24 24 23 21 20 19 19 18 18 18

GFSCGP_850_temp_033.txt.gz
Temp
21 22 22 23 23 24 25 26 27 27 28 28 29 29 28 25 25 24 23 22 21 21 21 20 19 19 20 21 21 20 20 21 21 21 21 21 20 20 20 20 20 20 20 20
20 21 24 24 22 23 24 25 26 26 27 27 28 28 28 26 25 25 23 23 22 22 21 20 20 19 20 21 21 21 21 21 21 21 21 21 21 20 20 20 20 20 20 20
23 24 24 22 22 23 24 25 26 26 27 27 27 28 27 26 25 25 24 24 23 23 22 21 20 20 20 22 22 22 21 21 21 21 21 20 21 20 20 20 20 20 19 20
24 25 23 23 23 23 24 25 25 25 25 26 28 27 26 27 26 25 25 23 24 23 22 22 21 20 21 23 23 22 22 22 21 21 21 21 21 21 21 20 20 20 19 19
23 23 22 22 23 24 24 25 25 26 26 26 27 26 29 25 26 26 26 25 24 24 23 22 21 24 22 21 23 23 23 22 22 22 21 21 20 21 21 20 20 20 19 19
25 23 24 24 24 24 25 24 25 25 26 24 26 26 28 28 28 28 27 26 24 24 24 23 22 22 21 23 23 23 23 23 22 22 22 22 21 21 21 21 21 20 20 19
24 23 24 25 24 24 25 25 24 24 24 24 28 26 27 29 29 30 29 26 25 24 24 24 23 22 23 22 24 24 23 23 23 23 22 22 22 22 22 21 21 20 20 20
23 22 24 25 25 24 24 25 25 24 26 27 25 26 28 29 30 29 29 29 27 25 25 24 24 24 25 25 24 24 24 24 24 23 23 23 22 22 22 22 21 21 20 21
24 24 24 25 26 26 24 24 27 25 22 24 27 28 28 28 29 30 29 29 27 27 26 25 24 24 26 26 26 26 25 25 24 24 24 24 23 23 22 22 22 21 21 20
23 23 25 25 26 26 25 26 23 25 23 24 26 25 28 28 29 29 29 29 28 28 27 26 25 24 25 26 27 26 26 26 26 25 25 25 24 24 23 23 23 22 21 21
19 22 23 25 25 25 23 24 25 26 25 26 26 28 27 28 28 30 30 30 29 28 27 27 26 26 25 24 24 25 26 26 26 26 26 25 25 24 24 23 23 23 22 21
16 21 23 23 26 27 26 25 25 25 23 25 27 27 28 29 30 28 30 29 29 28 29 28 28 26 25 24 23 24 25 25 27 27 27 26 26 25 25 24 24 24 23 22
15 18 22 23 24 24 25 26 26 27 27 24 25 27 30 27 27 28 28 28 29 29 29 28 27 26 26 26 25 24 25 27 26 26 26 26 26 26 26 25 25 24 24 23
14 16 19 23 23 20 21 23 25 26 26 25 25 27 28 28 27 28 28 28 29 28 30 29 29 29 28 27 26 25 25 25 25 25 26 26 26 26 26 26 26 25 24 24
14 15 15 16 17 18 18 20 21 22 25 25 26 27 27 27 28 28 29 28 28 28 30 29 31 31 30 28 26 26 26 25 25 25 26 28 27 26 26 26 26 25 25 25
13 14 14 15 17 18 18 19 20 21 22 22 24 25 28 26 27 27 28 28 29 27 30 30 30 30 30 30 29 28 27 27 25 26 28 28 27 26 26 26 26 26 25 25
11 13 14 15 16 17 18 20 21 21 22 23 23 25 26 26 27 26 26 27 28 28 30 32 32 31 31 31 31 30 29 27 26 27 27 27 27 26 26 25 26 26 26 26
10 11 13 15 15 15 21 21 21 22 24 24 24 25 26 26 27 27 27 28 29 30 31 31 32 32 32 32 30 30 28 29 28 27 26 25 26 26 25 25 26 26 26 26
10 11 13 14 16 18 18 20 21 20 23 22 23 25 26 26 26 26 26 27 28 29 30 31 31 31 31 32 31 28 27 27 26 27 27 27 28 27 25 25 27 26 26 25
10 10 12 13 14 15 19 21 19 18 19 19 18 20 22 25 26 28 28 28 29 29 30 30 31 31 31 32 29 27 27 27 28 29 29 28 26 25 26 26 25 25 25 26
9 9 10 11 13 16 18 18 17 18 21 18 18 18 17 19 23 26 26 26 27 29 28 30 30 31 31 31 28 28 27 27 30 27 25 25 23 24 23 22 21 20 20 19
10 9 9 10 11 12 17 19 18 18 16 17 17 17 16 16 17 18 21 23 26 28 27 28 29 29 30 30 28 27 27 27 26 27 27 26 26 24 22 21 21 21 20 18
9 11 11 11 13 15 15 15 17 16 15 16 16 16 15 15 16 17 20 21 22 23 26 26 26 28 29 28 27 27 26 26 26 26 25 25 24 23 22 22 21 20 24 20
10 10 9 11 12 13 13 14 14 14 16 15 14 14 14 14 16 19 19 20 20 23 24 23 24 26 27 26 26 25 25 25 25 25 24 23 23 22 21 20 22 20 19 19
9 10 10 10 10 10 11 12 13 15 14 14 14 13 13 15 17 17 17 17 17 20 21 22 23 24 24 24 24 24 24 25 25 24 24 24 23 22 21 21 20 24 25 20
7 8 8 9 11 11 12 13 14 12 14 13 16 13 13 15 15 16 16 16 18 18 19 21 22 22 22 23 24 24 24 24 24 24 25 24 24 23 22 20 22 20 20 19

GFSCGP_850_temp_036.txt.gz
Temp
24 25 25 27 28 29 30 30 30 32 32 31 32 32 33 31 30 29 27 26 25 25 24 23 22 21 21 20 19 18 18 18 18 18 18 18 19 19 19 19 19 20 20 20
25 25 27 28 28 28 28 28 30 31 32 31 32 32 33 32 30 29 28 27 26 26 25 23 22 22 21 21 20 18 18 19 20 18 19 19 19 19 19 19 19 20 20 20
26 27 28 27 27 27 27 28 29 30 31 31 31 31 32 32 31 30 29 28 27 27 26 24 23 22 22 21 20 19 19 20 20 19 18 18 18 19 19 19 19 19 20 20
27 29 27 27 27 27 27 29 29 29 30 29 32 30 33 33 32 32 31 29 28 26 26 25 24 23 23 22 21 19 19 20 20 20 19 19 19 20 20 20 20 20 20 19
26 27 27 27 27 28 28 30 29 29 29 29 30 30 32 33 32 32 32 30 29 28 27 26 25 24 23 22 21 20 19 21 20 21 20 19 20 20 20 20 20 19 19 20
28 28 29 28 28 28 29 28 28 28 29 28 30 31 31 33 32 33 33 31 30 28 28 27 26 25 24 23 22 21 20 22 22 22 21 21 20 20 20 20 20 20 19 19
27 28 28 28 27 28 28 27 27 27 28 28 31 31 31 33 34 33 34 33 31 28 28 27 26 25 25 24 23 22 20 22 23 22 22 22 22 21 20 20 20 20 20 20
25 25 27 29 28 27 27 28 29 26 29 30 30 30 32 34 33 33 33 33 32 30 28 28 27 26 25 24 23 22 22 24 24 23 23 23 22 21 20 20 20 20 21 21
27 27 29 29 28 29 27 27 30 31 31 30 32 31 33 33 33 33 33 33 33 31 29 28 28 27 25 24 23 22 23 25 24 24 24 23 23 23 20 21 21 20 20 21
27 27 29 28 28 29 29 29 28 30 27 27 30 31 31 32 32 33 34 34 33 32 30 30 28 28 27 25 24 23 26 26 26 25 24 24 24 23 23 22 22 22 21 21
25 27 28 29 27 28 28 28 29 30 30 29 29 32 33 32 32 33 34 33 34 33 32 31 30 29 28 27 25 24 22 25 26 26 26 25 25 24 24 23 23 23 23 21
24 26 27 27 29 30 29 28 29 28 27 29 31 32 33 33 33 33 33 33 33 33 33 32 31 30 29 27 26 25 24 23 23 26 26 26 26 25 25 25 24 24 23 23
22 24 25 27 28 29 29 29 29 29 30 28 28 31 32 32 31 31 32 32 32 32 31 31 31 31 29 28 27 26 25 24 24 22 25 26 27 26 25 25 25 25 24 24
16 23 25 27 27 28 27 29 29 29 29 29 30 31 31 31 31 32 31 31 31 30 30 30 30 30 30 29 28 26 26 25 25 24 22 23 27 27 27 26 26 26 25 25
19 21 21 24 22 23 27 28 29 28 29 28 30 30 31 31 31 31 31 30 30 31 30 30 29 29 28 28 27 26 25 25 25 24 23 22 27 27 27 27 27 26 25 25
18 19 19 20 22 22 23 24 26 28 29 29 29 30 32 31 30 30 30 29 29 30 30 31 30 29 28 28 27 26 25 25 24 24 24 23 23 24 26 26 25 25 25 26
15 18 18 20 22 22 21 23 24 25 27 27 27 28 29 29 29 29 29 29 29 30 30 30 30 30 29 29 30 28 29 25 24 25 24 23 23 24 25 23 23 25 25 25
14 15 18 20 20 19 24 27 26 25 26 27 27 27 28 28 28 28 28 29 29 30 30 30 30 31 30 29 30 28 26 26 26 25 24 25 23 24 23 22 24 25 24 24
15 15 17 17 19 22 23 23 23 24 25 27 27 27 28 28 27 28 28 29 29 29 29 30 30 31 30 29 28 28 27 25 24 26 26 25 25 21 20 22 22 20 19 19
15 14 15 17 17 19 23 25 23 24 22 26 25 25 25 26 28 29 29 29 29 29 29 28 29 29 29 29 28 28 27 25 25 28 26 24 24 23 23 23 21 21 19 19
14 14 14 15 16 19 22 22 21 20 22 23 23 23 23 24 24 23 23 23 24 24 25 26 26 26 27 29 30 30 27 26 26 23 22 22 25 25 24 23 23 23 23 21
14 13 14 15 16 16 20 21 20 22 21 21 20 20 21 21 21 21 21 21 22 23 25 26 25 25 26 28 29 30 29 27 24 23 22 22 24 22 20 21 21 21 19 19
12 14 15 16 16 18 18 18 17 17 17 18 18 19 19 20 20 20 21 21 21 23 25 25 25 24 26 28 29 29 28 25 23 23 24 22 21 21 21 20 19 19 19 20
13 14 13 14 15 16 16 15 15 16 16 17 17 18 19 19 19 19 20 21 23 24 23 23 23 23 22 25 25 26 27 26 25 25 24 22 21 21 21 20 20 20 21 20
13 14 13 13 14 14 14 14 14 14 15 15 16 17 18 18 17 17 18 21 22 22 21 21 21 21 20 20 20 21 24 24 23 23 21 21 21 22 21 22 21 21 21 22
11 11 12 12 13 13 13 14 14 14 15 15 16 16 17 17 15 15 18 20 20 20 19 19 19 18 18 19 21 22 22 20 21 21 22 23 23 22 21 22 20 21 21 21

GFSCGP_850_temp_039.txt.gz
Temp
26 27 27 28 30 31 33 33 33 34 35 34 34 34 35 34 33 32 31 29 28 27 26 26 24 24 23 23 21 20 20 19 19 19 19 19 20 20 20 20 20 19 19 18
27 26 29 30 30 31 31 32 33 34 35 34 34 34 35 35 34 32 31 30 29 28 27 26 25 24 24 23 21 20 19 19 19 19 19 20 20 21 20 20 20 19 19 18
28 29 29 30 30 30 31 31 32 33 34 34 33 33 34 35 34 33 32 31 30 29 28 26 25 25 24 23 22 20 19 19 19 19 19 19 20 20 21 21 20 19 19 19
29 31 30 30 30 31 30 32 32 33 33 32 34 31 33 34 34 34 33 32 31 30 29 27 26 25 25 24 22 21 20 19 19 19 20 20 20 21 21 21 21 21 20 19
28 30 30 29 30 31 31 33 32 32 32 32 33 33 34 35 34 34 34 33 32 31 30 29 27 26 25 24 23 21 20 19 19 19 20 20 20 21 21 22 21 21 20 19
30 31 32 31 31 31 32 31 32 32 32 30 31 32 33 35 35 35 35 34 33 32 30 29 28 27 26 25 24 22 20 20 20 19 20 20 20 21 22 21 22 21 21 20
29 30 31 32 31 31 31 30 29 29 30 29 32 32 33 36 36 36 36 35 34 32 31 30 29 27 26 25 24 23 21 20 20 20 20 21 20 20 21 22 21 22 22 22
28 28 30 31 31 30 30 31 30 27 29 30 32 32 33 36 36 36 36 35 34 33 32 31 29 28 26 26 25 24 22 21 21 21 21 22 22 20 20 21 22 21 23 23
29 29 32 31 31 32 30 30 32 32 33 33 34 34 35 36 36 36 36 35 35 34 32 31 30 29 27 26 25 24 23 22 23 24 23 23 23 22 21 21 21 21 21 23
30 29 32 31 31 31 32 32 30 31 30 31 34 34 34 34 34 36 35 35 35 35 33 32 31 30 28 27 26 24 23 22 24 24 24 24 24 23 22 21 21 21 22 21
29 30 31 32 30 30 30 31 31 32 32 32 32 34 36 35 35 34 36 35 35 35 34 32 31 31 29 28 27 25 24 23 22 23 24 24 24 24 24 23 22 22 22 21
29 29 28 31 32 32 32 31 31 30 30 32 34 34 36 37 36 35 35 35 35 35 34 33 32 31 31 29 28 27 25 24 23 22 23 24 24 25 24 24 23 23 22 22
26 26 27 29 31 31 31 32 32 32 33 31 32 33 34 34 35 35 35 35 35 35 35 34 34 32 32 31 29 28 27 26 25 23 23 22 23 24 24 25 25 24 24 23
18 24 26 29 30 31 29 31 32 32 32 32 32 33 33 33 33 33 34 34 34 33 33 33 34 34 33 32 30 29 29 27 26 25 24 23 22 24 25 25 26 25 25 25
22 22 25 28 30 31 31 30 31 31 32 31 33 32 33 33 33 33 33 33 32 32 32 32 32 32 32 32 31 29 28 28 28 26 25 24 23 22 22 24 25 26 25 25
21 21 23 26 28 27 27 30 31 32 31 32 33 33 35 34 33 33 32 32 31 31 32 32 31 31 31 30 30 30 28 28 27 27 26 25 23 22 21 22 23 26 26 26
17 21 22 23 26 25 25 27 29 31 32 32 31 32 34 34 33 32 31 31 31 31 31 31 31 31 31 30 29 29 28 27 27 27 26 25 24 23 22 21 21 23 26 26
17 18 20 22 23 22 27 29 29 29 30 32 32 32 32 32 31 31 30 30 30 30 31 31 32 32 31 31 32 29 28 27 26 26 26 25 24 23 22 22 21 21 21 23
18 17 19 20 23 25 27 28 28 28 27 29 29 30 30 30 29 29 29 29 29 29 30 30 31 32 32 32 32 31 30 28 27 26 26 25 24 23 22 23 23 22 21 21
18 18 17 20 21 22 26 26 27 27 26 29 29 29 30 29 29 30 29 28 27 28 28 27 30 30 30 30 31 30 30 29 28 27 26 25 23 23 22 22 22 22 21 21
16 17 17 18 19 22 25 25 26 23 24 28 28 27 27 27 27 24 24 24 24 25 25 25 25 26 27 28 29 29 29 29 29 27 25 23 23 22 22 22 21 22 22 21
16 16 17 18 18 18 24 24 23 21 21 21 21 22 22 23 22 23 23 23 23 24 24 25 25 26 28 26 27 27 27 29 28 27 25 24 23 22 22 22 21 21 21 21
15 17 18 18 19 21 21 21 22 21 19 19 20 20 20 21 21 22 22 22 22 23 24 24 26 28 27 26 25 25 26 26 26 26 25 23 22 22 22 22 21 21 20 21
17 17 17 17 18 18 18 18 19 18 18 18 18 18 18 19 20 21 21 21 20 22 24 26 26 26 26 24 23 23 24 24 24 24 23 23 22 21 21 22 21 21 22 21
14 15 15 16 17 16 16 16 17 17 17 17 17 17 17 18 19 19 20 20 19 21 23 23 24 24 24 22 22 23 23 22 22 22 22 22 22 21 21 21 22 22 22 23
12 13 14 15 16 16 16 16 16 16 16 16 16 17 17 17 18 18 19 18 18 21 23 22 22 21 20 20 19 20 21 21 22 22 22 23 24 23 22 22 21 22 22 22

GFSCGP_850_temp_042.txt.gz
Temp
27 28 28 29 30 30 31 32 32 33 34 34 33 33 34 33 32 31 30 29 28 27 27 26 25 25 24 23 22 22 21 21 20 20 19 19 19 20 20 20 21 20 20 20
28 27 29 30 30 30 31 31 33 34 35 34 34 33 35 34 34 32 30 30 29 28 27 26 25 25 24 23 22 22 21 20 20 20 19 19 20 20 20 20 21 20 20 20
27 28 30 30 30 30 30 31 32 33 34 32 34 33 34 35 33 34 32 31 30 29 28 27 26 25 25 24 23 22 21 20 20 20 19 19 20 20 21 21 20 20 20 20
28 30 29 29 29 30 29 32 32 33 34 32 34 31 33 35 34 33 33 32 31 30 29 27 26 25 25 24 23 22 21 20 20 20 19 19 20 20 21 21 21 20 20 20
28 29 30 29 29 31 30 32 32 32 33 33 33 32 34 34 34 34 34 32 32 31 30 28 27 26 25 24 23 22 22 21 19 20 19 20 20 20 21 21 21 21 21 21
29 30 31 31 31 31 32 32 32 32 32 31 32 33 33 34 34 35 35 34 33 32 30 29 27 26 25 25 23 22 22 21 20 20 20 20 20 20 21 21 21 21 21 20
28 29 31 32 31 32 32 31 29 29 30 29 32 32 33 36 36 36 35 35 34 33 31 30 28 27 26 25 24 22 22 22 21 20 21 21 20 20 21 21 22 22 21 21
28 28 30 32 32 31 31 31 30 27 29 30 32 31 33 35 37 37 36 35 35 34 32 31 28 27 26 26 25 23 22 22 21 21 21 22 21 20 21 21 21 22 22 22
29 28 31 32 32 33 31 30 32 31 32 31 32 32 34 36 36 36 37 36 35 34 33 32 30 28 27 26 25 24 23 23 22 23 22 22 22 21 22 22 22 22 22 22
29 28 31 32 33 32 32 33 30 31 28 29 32 33 33 33 35 35 36 37 36 35 34 32 31 29 27 26 26 24 24 23 24 23 23 24 24 23 22 22 21 22 21 22
28 29 30 32 31 31 31 32 31 31 31 30 31 34 37 34 34 35 36 36 36 35 34 33 31 30 28 27 26 25 24 23 22 22 23 23 23 24 23 22 22 22 22 22
28 28 28 29 33 33 32 31 32 30 29 32 32 34 37 37 36 36 36 36 36 36 34 33 32 31 29 28 27 26 24 23 23 23 23 23 24 24 24 24 23 23 22 22
21 25 26 27 31 33 32 31 32 32 32 30 31 33 35 36 36 36 36 35 35 35 35 34 33 32 31 29 28 27 25 24 23 22 21 21 22 22 23 24 24 23 23 23
19 22 25 28 29 32 31 31 32 32 31 31 32 33 33 34 35 35 35 35 35 35 35 34 34 33 32 30 29 28 27 26 25 24 22 22 21 21 22 23 24 24 24 24
22 22 25 27 30 32 31 31 31 31 32 31 32 33 32 33 33 35 35 35 35 34 34 34 34 33 32 32 30 29 28 27 26 25 24 24 23 22 21 21 22 23 24 24
20 20 23 25 28 29 29 32 31 32 32 32 33 34 34 34 33 33 33 32 32 32 32 32 32 32 32 32 31 30 29 29 28 27 26 25 24 23 22 22 22 21 22 23
17 19 20 22 25 27 27 30 31 32 33 33 32 34 34 33 33 33 32 32 32 31 31 31 32 32 31 31 31 30 30 29 29 28 27 26 25 24 24 23 22 22 22 22
16 17 19 21 23 22 27 30 30 31 33 33 33 34 34 33 33 33 32 32 31 31 31 31 31 32 32 32 31 30 30 29 29 28 28 27 26 25 24 24 23 22 22 22
18 17 18 20 22 25 27 29 29 29 30 33 33 33 34 31 32 31 31 31 30 30 30 30 30 31 32 32 32 31 30 29 28 28 27 27 27 26 25 24 24 23 22 22
18 18 17 20 21 22 26 29 30 30 27 29 31 31 31 31 29 28 26 26 26 26 26 27 26 28 29 30 31 31 30 29 29 29 29 27 27 26 25 24 24 23 23 22
17 16 17 18 19 23 23 25 27 26 21 23 24 28 29 28 25 24 24 24 24 24 24 25 25 26 27 29 29 30 29 30 29 29 29 28 27 27 26 24 23 23 22 21
17 16 16 18 18 19 22 23 21 21 21 21 21 21 22 23 23 23 23 23 22 22 22 24 25 26 26 28 28 28 29 29 30 29 29 28 27 26 25 24 23 22 21 21
15 15 16 18 19 21 20 21 20 21 21 20 20 20 20 20 20 20 21 21 22 21 21 22 24 26 26 27 27 27 27 27 28 28 28 28 27 25 24 23 22 21 21 21
14 15 15 17 18 19 19 19 19 19 19 19 19 19 19 19 19 19 20 20 20 20 20 21 22 25 26 26 25 25 25 26 25 26 26 26 25 24 23 23 22 21 21 21
13 13 14 14 16 17 18 18 17 17 17 17 17 18 18 18 18 18 19 19 19 19 19 20 22 23 24 24 23 23 23 24 24 24 24 24 24 23 22 22 22 21 21 21
12 11 10 11 12 11 12 13 15 16 17 17 17 17 17 17 17 17 17 18 18 18 19 20 22 22 22 21 20 21 22 22 22 23 22 23 23 22 22 21 22 22 22 22

GFSCGP_850_temp_045.txt.gz
Temp
24 22 23 24 25 26 27 27 28 30 32 30 30 29 27 26 27 23 25 26 25 25 24 23 23 23 23 23 23 23 22 21 21 20 21 20 20 20 20 20 20 21 20 20
23 22 25 27 27 27 27 27 28 30 31 31 30 29 30 28 24 22 23 24 26 26 26 25 25 25 24 24 23 23 22 22 21 21 20 20 21 20 21 20 20 20 20 20
23 25 27 27 27 27 27 27 27 28 31 32 30 29 30 29 25 22 20 23 26 26 26 26 26 25 24 24 23 23 22 22 22 21 20 20 20 19 20 20 20 20 20 20
25 26 26 26 27 27 25 28 29 29 29 26 31 25 27 30 26 23 22 25 26 26 26 26 26 25 25 24 24 23 23 22 22 21 20 20 20 20 20 20 20 20 20 20
25 26 26 26 27 28 27 29 29 29 28 28 29 27 28 29 29 26 24 23 24 27 27 26 25 25 25 24 23 23 23 22 21 21 20 20 20 20 20 20 20 21 20 20
26 28 27 27 28 29 29 28 27 28 27 26 27 28 28 29 28 27 26 25 26 28 27 26 26 25 25 24 24 23 23 22 22 21 20 20 20 20 20 21 20 21 21 21
26 26 28 29 27 28 28 25 24 24 25 25 26 26 27 31 30 30 29 28 27 28 27 27 25 25 25 24 24 23 23 23 22 21 21 20 21 20 21 21 21 21 21 21
22 23 27 29 27 26 26 26 24 23 24 25 26 26 28 30 31 34 33 29 28 27 25 27 26 25 25 25 24 24 23 23 23 22 22 21 20 21 21 21 21 21 21 21
23 23 28 28 29 28 26 25 26 25 25 24 25 27 28 30 30 30 33 32 28 27 27 27 26 26 26 25 25 24 24 23 23 22 22 22 21 21 21 22 21 21 21 21
23 22 27 29 29 29 28 27 25 25 22 23 26 26 27 28 30 30 29 33 32 31 30 28 27 26 26 26 25 25 24 24 24 23 22 23 23 22 21 22 22 21 21 21
15 21 24 27 27 27 27 26 27 25 23 21 23 26 28 29 29 30 29 32 33 32 30 28 27 27 27 27 26 25 24 24 23 23 23 22 23 23 22 22 23 22 21 21
14 16 22 24 27 29 28 28 26 26 23 24 23 27 28 30 31 31 32 33 34 32 31 29 28 28 27 26 26 26 25 24 24 24 23 23 22 23 23 22 23 23 22 22
13 14 19 23 25 26 28 28 28 25 23 23 25 26 32 28 30 32 31 34 34 33 31 30 28 28 27 26 26 26 26 26 25 24 23 23 23 23 24 24 24 23 23 23
12 14 15 20 23 25 26 28 28 27 25 25 26 27 29 28 28 28 31 34 35 34 32 30 29 28 28 27 27 26 26 26 26 25 24 24 24 24 24 25 24 24 24 23
10 13 17 20 23 25 26 28 29 27 27 26 26 26 28 31 28 28 32 34 34 33 32 31 30 29 28 28 27 28 28 27 26 26 25 25 25 25 24 24 24 25 24 24
9 13 16 20 23 25 26 28 30 29 29 28 27 27 27 28 30 28 30 31 30 32 32 31 31 30 29 29 28 28 27 27 26 26 26 25 25 24 24 24 24 24 24 24
10 14 14 18 23 24 23 26 29 29 29 29 27 27 28 28 27 27 30 31 31 31 31 31 32 31 30 29 29 29 29 28 27 27 26 26 26 25 25 25 23 24 24 24
10 13 14 15 20 20 23 26 27 29 29 29 28 28 27 26 28 29 31 31 31 30 30 30 30 31 31 30 30 30 29 28 28 27 26 26 26 25 25 25 25 24 23 23
13 13 13 15 19 21 25 23 24 27 20 22 22 28 29 27 25 23 25 25 25 26 26 27 27 28 29 30 30 29 29 29 28 28 28 27 27 26 25 25 25 25 24 23
14 15 14 15 17 20 18 21 21 24 17 20 20 22 28 25 21 20 23 23 23 24 24 26 28 28 28 28 29 30 31 30 29 29 29 28 28 27 27 26 25 25 25 24
14 14 14 15 16 15 14 18 20 19 17 19 19 19 19 18 19 20 21 22 22 22 23 25 27 27 26 28 28 28 27 28 30 30 29 28 28 28 27 27 26 25 25 24
12 13 13 14 15 12 15 18 17 17 19 18 18 18 18 19 19 19 20 20 20 21 23 23 25 26 26 26 27 28 29 29 28 28 28 29 29 29 28 27 26 25 24 23
9 10 7 11 11 15 16 16 18 17 17 17 18 18 18 18 18 18 18 18 19 19 20 21 22 23 25 26 26 27 27 27 28 28 28 28 28 28 27 27 26 24 24 23
10 11 10 10 12 12 13 13 14 13 12 17 17 17 17 17 17 17 17 17 18 18 19 20 21 22 22 23 25 25 26 26 26 26 26 27 28 27 27 26 25 24 23 22
9 10 7 8 10 9 12 11 9 10 10 12 13 16 17 17 17 17 16 16 17 17 18 19 20 20 21 22 22 23 24 24 25 25 25 25 26 26 26 25 23 23 22 22
8 6 5 5 6 5 6 7 7 7 8 10 12 13 14 16 16 16 16 16 16 17 18 20 19 19 20 21 22 22 22 22 22 22 23 23 24 24 24 23 23 22 21 21

GFSCGP_850_temp_048.txt.gz
Temp
20 19 19 20 20 22 23 23 24 26 28 26 27 26 25 23 22 21 21 20 20 20 21 21 21 21 21 21 21 21 21 20 21 20 21 21 20 21 20 20 20 20 20 20
19 19 21 22 22 22 23 23 24 26 28 27 27 26 26 24 23 22 22 22 21 21 21 22 22 21 22 22 21 21 22 21 21 21 21 21 20 21 20 20 20 20 20 20
20 22 23 23 23 23 23 23 24 24 26 29 28 26 24 25 24 24 23 23 23 23 22 21 23 22 22 21 22 22 22 22 22 21 21 21 21 20 20 20 20 20 20 20
21 23 23 23 23 24 22 25 25 26 25 23 28 25 25 25 24 24 24 24 24 25 24 23 22 23 21 22 22 22 23 22 22 22 21 21 21 21 21 21 20 20 20 19
22 23 23 23 23 25 24 25 25 26 24 25 26 25 27 25 23 23 23 23 24 24 25 24 24 24 22 23 22 23 23 22 22 22 22 22 21 21 21 20 20 20 20 20
22 25 24 24 25 25 26 25 24 24 22 23 24 26 25 24 23 23 24 23 25 24 25 25 24 23 23 23 24 23 23 23 23 22 22 21 21 21 21 20 20 20 20 20
22 23 25 25 24 24 25 22 21 20 21 21 23 22 26 26 25 24 24 22 23 25 25 25 24 24 24 24 24 24 23 23 23 22 22 22 21 21 21 21 20 20 20 20
20 20 23 25 24 24 23 22 18 20 20 22 22 23 26 27 28 26 25 25 24 24 26 25 25 25 24 25 25 24 23 23 23 23 22 22 22 21 21 21 21 20 20 21
8 20 24 25 26 25 23 23 22 20 21 21 22 25 26 26 26 26 25 26 24 24 25 26 25 24 24 24 25 25 24 24 23 23 22 22 22 22 22 22 21 21 21 21
9 9 21 25 25 26 25 23 22 18 21 20 21 23 25 26 26 25 26 26 25 26 26 26 25 25 24 25 25 25 25 24 24 23 23 22 22 21 22 21 22 22 21 21
9 9 16 22 22 24 22 24 23 22 18 22 20 24 23 25 25 25 26 27 26 27 27 26 26 25 25 25 25 25 24 24 24 24 24 23 22 21 21 21 22 22 22 21
9 9 9 17 23 24 26 23 22 23 20 19 19 24 29 26 26 26 29 28 28 27 27 26 26 25 24 24 24 25 25 24 24 24 23 23 23 22 22 22 22 22 22 22
7 9 8 15 20 23 23 24 23 21 20 19 24 25 26 26 25 26 28 28 28 28 27 26 26 25 24 24 25 26 25 25 25 24 24 24 23 23 22 22 22 23 23 22
6 7 8 9 15 16 21 24 23 24 23 22 23 25 27 27 26 26 27 28 29 29 27 27 26 26 25 25 25 26 25 26 26 25 24 24 24 23 23 23 23 23 23 23
5 6 8 10 13 15 17 23 24 24 24 24 25 24 25 24 25 23 27 29 29 29 28 28 27 26 26 25 25 25 26 26 26 26 25 26 25 25 24 24 24 24 24 24
4 5 7 9 15 18 19 24 24 25 26 24 24 23 25 26 26 25 26 27 28 28 28 28 27 26 27 27 26 26 27 27 27 27 27 26 26 26 25 25 25 25 25 25
4 6 6 10 17 21 21 19 23 25 25 25 24 24 27 24 20 20 25 26 27 28 28 28 27 27 29 29 28 27 28 27 27 27 27 27 26 26 26 26 25 25 25 25
6 6 6 10 14 18 18 17 19 19 19 18 18 21 22 21 20 20 21 22 24 27 27 28 28 27 27 27 27 28 27 27 27 27 28 27 26 26 26 25 25 25 24 25
8 8 7 12 15 19 16 15 16 16 16 17 17 22 22 22 21 20 20 20 21 24 25 26 27 28 28 27 27 27 27 28 27 27 28 28 27 27 27 26 25 26 25 25
8 8 9 11 14 15 13 14 17 19 14 16 17 17 18 22 17 16 19 20 20 22 24 25 26 27 27 27 28 27 27 27 28 28 28 28 27 27 27 27 26 26 26 26
6 8 12 13 13 11 10 11 17 14 14 16 16 16 15 15 15 17 18 19 19 20 22 23 26 27 27 27 27 28 27 27 28 28 28 28 28 28 27 27 26 26 26 25
6 7 7 8 11 10 9 10 10 10 11 11 13 15 16 16 17 17 17 17 18 20 21 22 24 24 26 27 28 28 27 27 26 27 27 27 28 27 27 27 27 26 26 25
6 6 6 6 7 10 9 9 10 9 9 9 10 12 13 17 16 17 17 17 17 18 19 20 21 23 23 25 27 27 27 27 27 27 27 27 27 27 27 27 27 26 26 25
8 8 6 5 8 7 8 10 9 8 8 9 11 11 13 14 16 16 16 17 17 17 18 19 20 21 21 21 22 23 23 24 25 26 26 27 27 27 27 27 27 26 26 25
6 6 5 6 6 6 8 8 7 7 9 9 12 12 12 14 14 15 16 16 17 17 18 18 19 19 19 20 21 22 23 22 22 23 25 26 26 27 26 26 26 26 25 25
4 4 4 5 6 5 5 5 7 5 7 9 9 13 13 12 13 14 15 15 16 17 17 18 19 19 19 19 19 21 22 22 22 22 22 22 23 23 24 24 25 24 24 24

GFSCGP_850_temp_051.txt.gz
Temp
18 16 17 18 19 21 22 22 23 24 25 25 24 24 21 20 20 19 19 19 19 19 19 19 19 20 19 20 20 21 20 20 20 20 20 19 19 19 20 20 20 20 20 20
16 17 19 19 19 20 20 20 21 23 25 25 25 24 22 20 20 20 19 19 19 19 19 19 20 19 20 20 20 20 21 20 20 20 20 20 20 20 20 20 20 20 19 19
17 19 20 20 20 20 20 20 21 22 24 25 26 25 25 21 21 21 20 20 19 20 19 19 19 20 20 20 20 20 21 21 21 20 20 20 20 20 20 20 20 20 20 20
18 21 21 20 20 20 18 22 23 23 23 23 25 21 24 22 21 21 21 20 20 20 20 20 20 20 20 21 21 20 21 21 21 21 20 20 20 20 20 20 20 20 20 20
19 20 20 20 21 21 21 22 22 23 22 22 24 21 22 23 21 21 21 21 21 21 20 21 21 22 21 21 21 21 21 21 21 21 21 21 21 21 21 20 20 20 19 20
18 22 21 22 22 22 23 23 22 22 19 21 23 21 21 23 23 22 23 23 22 22 21 22 23 22 22 22 22 22 22 21 21 21 21 21 21 21 21 21 21 20 20 20
15 20 21 23 21 21 22 19 17 18 18 21 21 21 24 24 25 24 24 24 23 23 23 22 21 21 22 22 22 22 22 22 22 22 22 21 21 21 22 22 21 20 20 20
8 16 20 22 22 21 20 19 16 17 17 21 21 19 22 25 26 26 25 25 24 23 23 24 23 23 23 23 23 23 22 22 22 22 22 22 22 22 21 21 21 21 20 20
9 10 12 16 23 23 21 20 20 18 18 19 22 21 24 24 25 25 26 25 25 23 23 23 24 23 23 23 23 24 23 23 23 22 22 22 22 22 21 22 22 21 20 20
9 8 11 14 19 23 22 21 20 17 18 18 19 21 25 22 23 24 25 25 25 24 24 24 24 24 24 24 24 24 24 24 24 23 23 23 23 22 22 21 22 21 21 20
8 8 10 12 18 21 20 22 21 20 18 21 18 21 21 23 24 24 25 26 25 24 24 25 25 24 24 23 23 24 24 24 23 23 23 23 23 22 22 22 22 22 21 21
7 7 9 10 15 14 13 20 19 22 19 17 21 23 24 23 22 25 26 26 26 25 25 25 25 25 24 23 22 23 23 23 24 24 24 23 23 23 22 22 22 22 22 21
7 7 8 12 16 16 16 20 23 20 17 19 22 23 24 23 24 24 26 27 26 25 25 25 25 25 25 24 23 23 23 24 25 24 24 23 23 23 23 23 22 22 22 21
7 7 7 8 10 10 10 12 13 16 22 19 22 23 23 24 23 23 24 29 29 28 26 25 26 25 26 24 23 23 24 24 24 25 24 24 24 23 23 23 22 22 22 22
6 6 6 7 8 9 10 10 13 14 20 22 24 20 21 22 23 23 24 26 26 27 26 26 26 25 25 25 23 23 25 25 24 25 25 25 24 24 24 23 23 23 23 23
4 5 5 7 10 10 11 12 14 15 19 22 22 22 21 20 21 18 19 23 25 27 26 26 26 25 25 27 25 25 26 27 25 26 26 25 25 24 24 24 24 24 24 24
4 4 6 6 10 13 14 15 16 18 15 17 21 20 19 17 17 17 17 20 24 27 27 26 26 26 26 27 28 28 28 26 25 26 26 25 25 25 25 25 24 24 24 24
4 5 5 5 9 15 13 13 16 15 15 15 15 17 18 17 17 17 16 16 21 25 27 26 26 26 26 27 27 27 25 27 26 26 26 25 25 25 25 25 25 25 25 25
5 4 6 7 11 14 15 12 10 13 13 13 14 15 18 19 19 17 16 16 17 20 25 27 26 26 25 26 26 25 26 26 26 27 27 27 26 26 26 25 25 25 25 25
5 4 5 6 9 13 11 11 11 13 12 10 11 12 15 17 15 13 15 16 17 20 23 26 26 26 26 26 26 26 26 26 27 28 28 27 27 27 27 27 27 27 25 25
5 5 5 7 8 10 10 10 11 11 10 9 9 9 11 13 13 14 16 17 17 18 21 23 24 26 26 26 26 26 27 28 29 26 26 27 27 28 27 27 26 26 26 26
6 6 7 7 9 10 9 10 9 9 10 8 8 9 9 13 15 16 16 17 17 18 21 23 24 25 25 26 26 26 26 26 26 26 25 25 26 25 25 25 26 25 25 25
6 4 5 5 7 8 7 8 7 7 7 7 7 10 10 11 13 15 16 16 16 17 18 19 21 22 23 24 25 25 25 25 25 25 25 25 25 25 25 25 25 25 25 25
6 6 4 5 7 7 7 7 6 7 6 6 8 9 11 11 12 14 15 16 16 17 17 18 19 20 20 21 22 23 23 24 25 25 25 25 25 25 25 25 24 24 24 25
4 4 4 6 7 6 8 8 7 7 8 8 10 10 11 12 12 13 14 14 15 16 16 17 18 18 18 19 21 21 22 22 23 24 24 25 25 25 25 25 25 25 25 25
3 3 3 5 6 5 5 7 6 7 7 8 10 13 12 12 12 12 13 14 15 15 16 17 18 18 18 18 19 20 21 22 22 23 24 24 24 24 24 24 24 25 25 25

GFSCGP_850_temp_054.txt.gz
Temp
16 14 16 17 18 19 19 20 21 22 24 23 22 21 19 19 18 18 18 18 18 18 18 18 18 19 19 19 20 20 20 21 20 20 19 19 19 20 20 20 20 19 19 19
14 15 17 18 17 18 19 20 20 22 24 22 22 22 20 19 19 18 18 18 18 18 18 18 18 18 19 20 20 19 20 21 20 20 20 20 20 20 19 20 20 20 19 19
15 16 18 18 17 17 17 17 19 22 22 23 23 22 20 20 20 19 19 18 18 18 18 18 18 19 19 19 20 20 20 20 20 20 20 20 19 19 19 19 20 20 19 19
16 18 18 18 18 17 15 19 20 21 21 20 22 19 21 20 19 19 19 19 19 19 18 18 18 18 19 20 20 20 20 20 20 20 20 20 20 20 19 19 20 19 20 19
17 17 18 18 19 18 19 19 19 20 20 21 22 20 20 21 19 19 20 19 19 19 19 19 19 20 19 20 20 20 20 21 20 20 20 20 20 20 20 20 19 20 20 19
17 20 19 20 20 20 21 21 19 19 17 18 21 22 19 19 21 20 20 20 20 20 19 20 20 19 19 19 20 20 20 21 21 20 20 20 20 20 20 20 20 20 20 20
13 17 19 20 19 19 19 18 15 16 16 19 20 20 21 22 23 23 21 21 21 20 20 20 20 20 20 19 20 21 20 21 21 21 21 21 21 21 20 20 21 21 20 20
8 15 17 18 18 18 18 17 14 15 16 20 18 18 21 24 24 24 24 22 22 21 21 21 22 22 22 21 20 22 22 21 21 22 22 21 21 21 21 21 21 21 21 21
7 10 12 14 16 18 18 18 18 16 16 16 21 20 23 22 23 23 24 24 23 22 21 21 21 22 23 21 22 22 23 23 22 22 22 22 22 21 21 21 21 21 21 21
8 7 11 13 15 17 17 19 18 15 17 16 18 19 22 22 22 22 22 24 24 23 22 22 22 22 23 23 23 23 23 23 23 23 23 22 22 22 22 21 21 21 21 21
7 7 10 11 14 17 18 18 18 19 16 17 17 20 20 22 23 24 22 24 24 24 23 23 23 24 22 23 22 24 23 23 23 23 23 23 23 22 22 22 21 21 21 21
7 7 7 9 12 12 12 13 16 19 17 17 16 20 23 22 22 24 25 26 27 26 25 24 24 23 23 23 22 23 24 24 23 24 23 24 23 23 22 22 22 21 21 21
7 7 6 11 12 12 12 11 10 10 15 18 20 19 22 22 22 24 24 26 27 28 26 24 23 23 24 24 23 23 24 24 24 24 24 24 23 23 23 23 22 22 21 21
7 5 6 8 10 9 10 11 11 10 11 18 20 21 23 23 22 21 25 26 25 26 26 25 24 24 24 24 24 24 23 24 24 24 24 24 24 24 23 23 23 22 22 22
4 4 5 7 8 8 9 10 10 10 11 12 20 19 20 21 22 21 24 24 24 26 26 25 25 24 24 23 23 24 24 24 24 23 23 24 24 24 24 24 23 23 22 22
3 4 6 6 7 8 10 12 12 13 13 13 14 17 17 16 18 16 16 17 18 21 24 27 29 26 24 24 25 25 24 25 24 24 24 24 24 24 24 24 24 23 23 22
3 5 6 6 8 9 11 13 15 13 11 13 17 17 15 15 15 14 14 14 15 18 22 24 25 27 25 25 25 26 26 25 25 25 25 24 24 24 24 24 24 24 23 23
3 3 5 6 10 10 12 14 14 12 11 10 11 12 16 15 15 14 14 13 14 16 22 26 26 26 27 26 26 25 25 26 27 26 25 25 25 25 24 24 24 24 24 23
3 4 5 6 8 9 14 11 10 9 11 10 9 10 12 15 17 16 14 14 14 15 18 24 25 25 24 25 25 25 25 26 27 27 27 26 26 25 25 25 25 24 24 24
4 4 4 6 8 12 9 9 10 11 11 10 9 9 10 15 13 13 14 14 15 16 18 23 25 25 24 24 25 25 26 27 28 28 28 27 26 26 26 26 26 25 24 25
4 5 5 5 7 8 7 7 10 12 10 8 7 7 8 10 11 13 14 16 15 15 18 21 25 25 25 25 25 25 25 27 27 26 26 26 26 26 26 26 25 25 25 24
5 5 6 6 8 10 6 9 9 8 8 7 6 7 8 10 12 14 15 16 16 16 18 20 22 24 25 25 25 25 25 26 26 25 26 26 26 26 26 25 25 25 24 24
6 5 5 5 5 5 5 4 6 7 6 6 6 8 9 11 12 13 14 15 15 16 16 18 19 21 23 23 24 24 24 25 25 25 25 25 25 25 24 25 25 24 24 24
4 4 4 4 5 6 5 6 7 6 6 7 7 8 10 11 12 13 14 15 16 16 16 16 17 17 18 19 21 21 22 23 24 24 24 23 24 24 23 23 24 24 24 24
3 3 3 4 5 5 6 6 6 6 6 6 8 9 10 11 12 13 13 14 15 15 16 16 16 16 16 18 19 20 20 21 22 23 23 23 23 23 23 23 24 23 23 24
4 3 4 4 5 5 5 6 6 6 6 7 7 9 9 10 11 12 13 13 13 14 15 16 16 17 17 16 17 18 19 21 22 22 23 23 23 23 24 24 25 25 25 25

GFSCGP_850_temp_057.txt.gz
Temp
18 19 19 21 21 22 23 23 25 26 27 27 27 26 23 21 20 20 19 19 19 18 18 18 17 17 17 19 19 20 20 21 20 20 20 19 19 19 19 20 20 19 19 19
18 19 21 21 20 20 22 21 24 26 26 26 26 26 25 22 22 21 20 19 19 19 18 18 18 18 17 18 19 20 20 21 20 20 20 20 20 20 20 20 20 20 19 19
19 20 20 20 20 20 21 22 22 24 26 26 26 26 25 23 22 21 20 20 20 19 19 18 18 18 18 17 19 20 20 20 20 20 20 19 19 19 19 19 20 20 20 19
19 20 20 20 20 21 21 22 22 22 23 25 26 26 26 26 22 22 21 20 20 20 19 19 19 18 18 18 19 19 20 20 20 20 20 20 20 20 20 20 20 20 20 19
19 19 19 20 20 21 21 22 22 22 22 23 24 25 27 26 24 23 23 22 21 20 20 20 19 19 19 18 19 20 20 20 20 20 20 20 20 20 20 20 19 19 20 20
18 20 21 21 21 21 22 22 22 23 23 21 24 25 26 26 26 25 24 23 22 21 20 20 19 19 19 18 18 20 20 20 20 20 20 20 20 20 20 20 19 19 19 20
16 19 21 22 21 22 21 21 21 20 21 22 25 24 25 28 28 28 26 23 23 22 21 20 19 19 19 19 18 20 20 20 20 20 20 20 20 20 20 20 20 19 19 20
15 18 19 21 22 21 21 22 22 20 22 23 24 23 25 27 28 26 27 26 24 22 22 21 20 19 19 20 20 21 21 20 20 20 20 21 21 20 21 20 20 20 20 20
13 15 15 16 17 22 21 21 23 22 21 23 25 24 26 27 28 29 28 26 25 23 22 22 21 20 20 20 22 22 21 21 21 21 21 21 21 21 21 21 21 20 20 20
11 13 15 15 16 19 21 23 21 21 20 21 24 24 25 26 27 28 28 27 26 24 23 23 22 21 21 21 22 23 23 23 22 21 21 22 22 22 21 21 22 21 21 20
11 11 15 14 17 20 20 20 22 23 22 22 23 24 27 27 28 28 28 27 27 26 24 23 23 22 22 22 22 24 23 23 23 22 22 22 22 22 22 22 22 22 21 21
10 11 11 14 16 15 15 18 22 21 21 22 23 24 27 28 29 29 30 28 27 26 25 24 24 23 22 21 22 23 24 24 24 23 23 23 23 23 22 22 22 22 22 21
9 9 10 15 17 15 16 15 17 20 21 22 21 23 27 27 26 26 27 27 26 25 25 24 24 23 22 21 22 23 24 24 24 23 24 23 23 23 23 23 23 23 22 21
8 9 10 13 12 12 12 13 14 15 21 21 22 23 25 26 26 27 26 25 25 24 24 24 24 23 23 22 22 23 24 24 24 24 24 24 24 24 24 23 23 23 23 22
8 8 9 10 10 10 10 11 13 14 17 19 22 23 25 26 27 27 26 23 23 23 24 24 24 23 23 22 22 21 23 25 24 24 24 25 25 24 24 24 24 23 23 23
7 8 8 9 11 11 11 12 13 14 15 16 18 19 22 21 20 21 19 19 20 21 21 22 23 23 23 23 24 23 22 23 25 24 25 26 25 25 24 24 24 24 24 23
7 7 8 9 11 11 12 13 15 16 15 17 18 21 18 20 19 17 16 16 17 17 18 19 22 23 24 25 25 24 24 23 24 25 25 25 25 25 25 25 24 24 24 23
5 5 7 8 10 10 16 16 18 15 13 13 14 15 16 19 17 16 15 15 15 15 16 19 20 24 23 24 23 23 21 22 23 25 25 25 25 25 25 25 24 24 24 24
8 6 8 8 9 11 14 12 14 15 13 12 12 13 13 15 17 18 14 13 14 14 15 16 21 25 25 23 23 23 23 22 23 25 26 25 25 25 24 24 25 24 24 24
7 7 7 8 7 11 8 8 9 12 14 11 11 12 13 18 21 18 13 12 13 14 14 19 22 25 25 23 23 23 23 23 25 26 27 26 26 26 26 25 25 25 25 24
4 5 5 7 6 9 6 6 8 11 13 10 10 10 11 14 13 12 12 12 12 13 15 17 22 22 23 23 21 22 23 26 26 25 26 27 27 27 26 26 25 25 25 24
6 6 7 6 6 7 4 6 9 9 9 8 9 9 10 11 11 12 12 12 13 13 14 16 18 21 21 23 24 24 25 24 24 25 25 26 26 26 25 25 24 24 24 24
6 5 6 6 6 5 4 5 6 7 8 7 7 9 9 9 10 11 11 13 13 14 13 13 15 17 18 19 20 22 23 23 24 25 25 25 25 25 24 25 24 24 24 23
4 3 4 3 5 5 5 6 6 7 7 6 7 7 8 8 9 11 11 12 13 14 15 15 16 17 17 18 20 20 21 22 22 23 24 24 24 24 24 24 23 23 24 24
3 3 3 4 5 4 4 5 6 7 7 6 7 7 7 8 9 10 11 12 12 13 14 15 16 16 16 17 18 19 19 20 20 21 22 22 23 23 23 23 23 24 22 22
3 4 4 5 5 6 4 4 4 5 6 6 6 6 7 7 8 9 10 11 11 12 14 14 15 16 16 17 17 17 18 18 19 19 19 20 19 21 22 22 23 23 22 25

GFSCGP_850_temp_060.txt.gz
Temp
22 22 23 26 26 28 27 29 29 30 30 29 30 30 28 26 26 25 24 23 22 22 21 21 20 20 20 19 18 18 18 17 17 18 18 18 19 19 18 19 19 19 19 19
22 22 25 26 26 25 26 26 27 30 30 28 30 30 31 28 27 26 24 24 23 22 22 21 20 20 20 19 18 18 17 17 19 18 18 19 19 19 19 19 20 19 19 19
23 25 25 25 24 24 25 26 27 28 29 27 29 30 30 30 27 26 25 24 24 23 23 21 21 21 20 20 19 18 18 18 20 18 18 18 18 18 18 19 19 19 20 20
23 25 23 24 23 24 25 27 26 26 27 28 29 29 30 31 28 28 26 25 25 24 23 22 21 21 21 20 19 18 18 19 20 20 18 18 19 20 20 20 20 19 20 20
23 23 23 23 24 25 25 27 26 26 26 27 28 28 31 32 30 29 28 26 26 25 24 23 22 21 21 21 20 19 18 19 19 20 19 18 19 20 20 20 19 19 20 20
23 23 24 24 25 24 26 25 25 25 26 25 27 28 30 30 31 31 29 28 26 26 24 24 23 22 21 21 20 19 18 20 20 20 21 19 19 20 20 19 19 20 20 19
22 22 23 24 24 25 24 25 24 24 25 25 29 28 29 32 33 32 32 29 28 26 25 24 23 22 22 21 21 20 19 19 21 20 20 21 20 19 19 19 19 20 20 20
21 22 23 24 24 24 24 25 25 23 26 27 28 27 29 31 31 32 31 30 29 27 26 25 24 23 22 21 21 20 19 20 20 21 20 21 21 19 19 19 20 20 20 20
20 20 22 21 24 25 25 24 26 27 28 28 29 29 30 31 31 30 30 31 30 29 27 26 25 23 23 22 21 20 19 20 21 20 21 21 21 20 19 19 20 19 19 20
17 17 21 21 20 22 23 26 24 25 24 25 28 28 29 29 30 31 31 31 30 30 28 27 25 24 23 22 22 20 20 19 20 20 20 20 21 21 21 19 20 20 20 20
16 16 19 19 20 22 22 23 24 26 26 25 26 28 31 30 30 30 31 31 31 30 28 27 26 25 24 23 22 21 20 19 19 20 19 20 20 20 21 20 21 21 21 21
16 16 16 18 21 21 21 22 24 24 23 25 27 29 31 31 31 31 31 31 31 31 30 28 27 26 25 23 23 22 21 21 20 20 21 22 20 21 20 22 22 22 22 21
14 15 14 17 19 20 20 21 22 24 26 25 25 26 30 30 29 30 30 31 31 30 30 29 28 27 25 24 23 23 22 22 22 20 20 21 21 20 20 22 22 22 22 22
11 14 14 16 17 16 16 18 19 21 22 24 26 27 28 29 29 29 29 29 30 30 29 29 28 28 26 25 24 23 23 23 23 22 21 21 23 22 22 23 23 23 23 22
12 12 14 14 15 15 15 16 16 17 20 22 25 25 27 28 29 29 29 29 27 27 28 28 28 27 26 25 24 23 23 23 24 22 22 21 24 24 23 23 23 23 23 23
11 11 12 12 14 15 15 16 17 17 18 19 21 23 28 28 26 25 26 24 25 26 26 26 27 27 26 25 24 23 22 23 23 23 22 22 24 24 24 24 24 24 24 23
10 11 12 12 15 15 14 17 18 18 19 19 20 23 26 26 25 24 22 22 23 23 23 23 24 25 26 25 25 23 22 23 22 22 22 22 24 24 25 25 24 24 24 24
8 9 11 12 13 12 18 21 21 20 20 21 21 23 24 22 23 20 19 19 19 20 20 21 21 23 24 26 26 24 23 22 22 21 21 22 25 24 24 24 25 25 24 24
10 8 10 11 13 15 16 11 11 11 19 19 19 20 20 19 21 22 17 16 17 17 18 19 20 21 21 23 25 25 23 22 21 21 23 24 24 25 24 23 24 25 24 24
11 9 7 10 9 11 9 9 9 12 16 17 16 17 18 19 20 23 14 14 15 16 16 17 18 20 21 21 23 25 23 22 21 21 23 23 24 24 25 24 24 24 24 25
6 6 7 9 9 11 11 8 7 11 13 14 14 14 16 19 17 13 12 12 13 14 16 16 19 21 22 22 22 25 23 22 22 21 21 21 21 23 24 24 24 25 25 23
8 7 8 9 9 9 8 9 7 7 8 10 10 12 13 14 12 11 11 11 12 12 14 15 18 21 24 24 23 24 22 22 21 21 21 20 22 21 21 24 24 23 23 24
7 8 7 9 10 7 6 5 6 6 7 8 8 10 11 12 11 10 10 11 11 11 11 13 16 18 21 22 23 22 21 21 20 21 20 20 22 20 21 23 23 22 23 21
2 3 5 4 6 5 5 5 6 6 7 8 8 8 8 9 10 9 9 10 11 12 12 10 12 15 17 18 20 21 20 20 20 20 20 20 21 20 20 20 20 20 21 20
2 2 2 3 4 4 5 4 5 6 7 7 7 7 7 8 8 8 9 10 11 11 12 11 11 11 13 15 17 18 19 19 19 20 20 20 20 19 20 20 21 21 22 22
3 4 4 4 4 4 4 4 4 4 5 5 5 6 6 6 7 8 8 9 10 11 11 11 11 12 11 12 14 17 18 19 20 20 20 21 21 20 21 21 20 20 21 21

GFSCGP_850_temp_063.txt.gz
Temp
23 25 26 28 29 30 32 32 32 33 30 31 31 29 20 30 30 28 27 26 25 25 24 23 23 23 22 21 20 20 19 19 18 18 19 20 20 20 20 20 20 19 19 18
26 25 28 29 29 29 30 30 31 33 33 30 30 30 30 31 31 29 28 27 26 26 25 24 23 23 22 21 20 19 19 19 18 18 19 20 21 21 21 21 19 19 19 18
26 28 28 28 28 28 29 29 30 31 33 33 31 29 30 25 31 30 28 28 27 26 25 24 23 23 23 22 20 19 19 18 18 19 19 19 20 21 21 21 20 19 19 19
26 28 27 27 27 28 28 29 30 30 31 31 32 29 23 26 31 31 29 28 28 26 26 25 23 23 23 22 21 20 19 18 18 19 19 19 20 21 21 21 21 20 19 19
26 26 27 26 27 28 27 30 30 29 30 30 31 30 29 29 27 31 31 29 28 27 26 25 24 23 23 23 21 20 19 18 19 19 20 19 20 21 21 22 21 21 19 19
25 27 27 27 28 28 28 28 28 29 29 28 29 31 31 30 30 33 32 30 29 28 27 26 25 24 23 23 22 21 19 19 19 19 20 19 19 21 22 22 21 21 21 20
25 25 27 26 26 28 27 27 26 26 27 27 30 30 32 34 31 32 33 31 30 29 28 27 26 25 24 23 23 22 20 19 20 19 21 19 19 21 21 21 21 21 22 22
24 25 26 27 26 27 27 27 27 25 27 29 30 30 31 34 34 32 30 32 31 30 29 28 26 25 24 24 23 22 21 19 19 19 20 21 20 20 20 20 21 21 22 22
23 24 26 26 27 27 27 26 29 28 30 30 32 32 33 34 34 31 24 32 31 31 30 29 27 26 25 24 23 22 21 20 19 19 19 21 21 21 20 21 21 21 21 22
21 20 24 25 25 25 26 28 26 27 25 26 30 31 32 32 33 33 33 33 32 31 31 30 28 27 26 25 24 22 22 20 19 19 19 20 21 22 21 20 20 20 21 21
20 20 21 24 23 23 25 25 26 28 28 27 28 31 34 33 33 33 33 32 33 32 32 31 30 28 26 25 24 23 22 21 20 19 19 20 19 20 22 20 20 20 20 20
20 19 19 21 25 25 25 25 26 25 25 28 28 30 34 34 34 33 33 33 32 32 32 31 31 29 28 26 25 24 23 22 21 20 19 19 20 20 20 21 20 20 20 20
18 17 17 19 21 22 23 24 25 25 27 26 27 29 33 33 32 33 32 32 32 32 32 31 31 30 28 27 26 25 24 23 22 21 20 20 20 20 20 20 21 21 21 21
14 16 17 18 20 20 21 22 23 25 25 25 27 29 31 31 31 31 32 32 32 32 32 32 31 30 29 28 26 25 25 24 24 22 22 21 20 20 20 20 21 21 22 22
15 14 16 17 18 19 19 20 22 23 23 23 26 27 29 31 31 31 31 31 31 30 31 32 32 31 29 28 27 25 25 24 24 23 22 22 21 20 20 21 20 22 22 23
16 14 14 13 16 18 17 18 19 20 22 22 22 23 28 27 27 31 29 29 28 28 29 29 30 30 30 28 27 25 25 25 25 24 23 23 21 20 21 21 21 21 22 23
14 10 12 12 15 17 16 18 19 20 21 22 21 23 26 26 27 26 28 26 26 26 27 27 27 29 29 28 27 26 24 24 25 24 23 23 22 22 21 21 21 22 22 23
12 10 11 10 14 12 17 21 21 20 21 23 23 24 25 25 25 23 23 23 23 23 24 24 25 26 26 28 28 27 26 24 24 24 24 23 22 22 22 21 22 23 24 23
14 13 9 9 12 15 17 16 15 16 19 23 23 23 24 24 24 24 22 20 20 20 20 21 22 23 24 25 27 28 26 24 23 24 23 23 22 21 21 22 22 23 23 24
14 13 10 12 11 11 16 14 14 15 17 17 23 23 23 22 22 24 18 17 18 18 19 19 20 21 22 23 24 26 27 25 23 23 23 23 22 22 21 21 22 23 24 24
9 8 10 11 10 13 16 14 13 12 13 11 14 14 18 20 18 16 15 15 15 16 17 16 17 20 21 22 23 24 26 26 24 23 23 22 21 21 20 20 20 22 23 21
8 8 9 11 11 10 11 13 12 11 9 10 11 12 12 14 14 13 14 14 14 14 15 14 15 18 21 24 24 23 24 26 25 23 22 22 21 21 21 20 20 20 21 21
9 8 9 10 11 11 9 8 8 8 9 7 10 10 10 11 12 11 12 12 12 12 13 12 13 15 19 21 24 23 23 25 24 23 22 21 21 20 21 20 20 20 20 21
5 4 6 7 11 7 4 5 5 5 6 7 9 9 9 9 10 9 9 10 10 11 11 10 11 13 17 19 21 22 24 23 23 22 21 21 20 20 21 21 20 21 21 21
2 1 3 5 5 4 4 4 4 4 6 6 7 7 7 7 8 7 8 8 9 9 10 10 10 11 13 16 18 19 21 22 22 21 21 21 21 20 20 21 21 21 22 23
3 3 3 4 3 3 4 3 3 4 4 5 6 6 6 6 6 7 7 8 9 9 9 11 11 11 11 14 16 18 19 20 20 21 21 22 22 21 21 22 22 23 23 23

GFSCGP_850_temp_066.txt.gz
Temp
25 25 24 26 28 29 30 31 32 33 34 33 32 24 21 22 22 23 27 26 24 24 25 25 25 24 23 22 21 20 20 20 19 18 19 19 20 20 20 20 19 19 19 18
26 24 27 29 29 29 30 30 31 34 35 33 28 20 20 21 23 19 28 27 26 25 25 25 25 24 23 22 21 20 20 19 19 18 19 20 20 21 20 20 19 20 19 19
25 28 28 28 29 29 29 29 30 31 34 34 33 21 20 22 21 20 26 28 27 26 25 25 24 24 23 22 21 20 20 19 19 19 19 20 20 21 21 20 20 20 19 19
26 28 29 28 28 29 28 31 31 31 31 30 34 29 19 22 19 17 17 29 28 27 26 25 24 24 23 22 21 20 20 19 19 19 19 20 20 21 21 21 21 21 20 19
26 27 28 28 28 29 28 31 30 30 29 30 31 31 29 24 21 19 18 27 29 28 26 25 24 24 24 22 21 20 20 19 19 19 19 20 20 21 21 22 21 21 20 20
26 28 29 28 29 29 30 29 29 29 30 28 29 30 31 27 23 19 17 23 29 28 27 26 25 24 24 23 21 20 20 20 19 20 20 19 20 21 21 22 21 21 21 20
25 26 28 28 28 29 29 27 25 26 26 27 30 30 31 33 27 23 23 24 30 29 28 27 25 24 24 23 22 21 20 20 20 21 20 20 20 21 21 22 21 21 21 20
24 25 27 28 27 27 28 27 26 24 26 28 30 29 31 34 31 26 24 22 23 30 28 27 26 25 24 24 23 21 20 20 20 20 21 20 20 21 21 21 22 21 22 22
23 24 28 28 28 27 26 27 28 27 29 29 30 32 33 34 34 32 27 25 25 24 29 28 27 25 24 24 23 22 21 21 20 21 21 21 21 21 21 21 21 21 22 22
21 20 25 26 27 27 27 28 26 27 24 25 28 30 32 32 33 34 30 24 23 21 25 23 28 26 25 24 24 23 22 21 21 21 21 22 21 22 22 21 21 21 21 22
20 20 21 24 24 25 25 25 26 27 28 26 26 29 33 33 33 34 31 26 25 24 22 20 22 27 26 25 24 23 22 21 20 20 20 20 22 21 22 21 21 21 21 21
20 19 19 21 24 26 26 25 26 25 24 26 28 29 34 35 35 34 34 27 27 25 25 24 25 24 27 26 25 24 23 22 21 20 20 19 19 21 22 22 21 21 21 21
18 18 18 19 21 23 23 25 25 26 26 25 26 28 32 33 33 34 34 34 31 24 24 22 22 23 28 27 26 25 24 22 22 20 19 19 19 19 21 22 21 21 21 21
15 16 16 17 20 20 20 23 23 24 24 25 26 27 29 32 32 31 32 33 33 32 26 27 26 29 28 27 26 25 24 24 23 21 20 19 19 19 20 21 22 21 21 22
16 14 16 17 18 19 19 20 21 22 23 23 26 27 28 28 27 27 24 27 32 32 31 31 31 28 21 28 27 26 25 25 24 23 21 20 20 19 19 20 21 21 22 22
15 14 15 15 17 17 17 18 20 21 22 23 24 26 28 27 24 23 23 22 27 28 29 28 29 30 29 28 27 26 26 25 25 24 23 21 20 20 20 19 20 20 21 22
14 13 12 12 16 16 15 18 19 20 21 22 22 25 26 25 24 23 23 21 21 26 26 26 26 26 27 28 27 26 25 25 25 25 24 23 22 21 20 20 20 20 20 21
14 14 11 11 13 10 16 19 20 20 20 22 22 23 24 24 25 24 23 21 20 21 22 23 23 23 24 21 20 26 25 25 25 25 24 23 23 22 21 20 20 20 20 21
15 14 10 10 11 13 15 18 17 16 18 22 19 20 22 24 24 21 18 18 19 19 20 21 21 21 22 23 25 25 27 26 25 25 24 24 23 23 22 21 20 20 20 20
14 15 10 10 11 11 15 13 15 16 16 15 15 17 18 19 22 16 16 17 17 17 18 18 17 19 20 21 22 23 24 26 26 25 25 24 24 23 22 22 21 20 20 22
10 11 10 10 10 13 14 12 12 12 13 12 12 12 14 15 14 13 15 16 15 15 16 16 16 16 17 19 21 22 24 25 26 25 25 24 24 23 22 22 21 21 20 20
10 9 10 9 8 10 11 13 11 9 9 10 11 11 12 12 13 14 14 14 14 14 14 14 13 13 15 18 19 21 23 26 25 25 24 24 24 23 22 22 21 21 20 20
8 6 7 10 11 10 8 7 7 7 7 8 8 10 10 12 11 11 12 12 12 13 13 12 11 12 14 16 18 20 22 23 25 24 25 24 23 23 22 22 21 20 20 20
6 4 6 7 12 9 7 8 5 4 5 6 7 9 9 10 10 10 11 11 11 11 11 11 10 12 14 15 16 17 20 23 23 25 24 24 23 22 22 22 21 21 20 20
3 2 3 4 6 4 4 3 3 3 4 4 6 6 7 8 8 8 9 9 9 10 10 10 9 11 12 13 15 17 19 22 22 24 24 23 22 22 21 21 21 20 20 20
3 3 3 4 2 2 2 3 2 2 3 4 5 5 6 7 7 8 9 8 8 9 9 9 9 11 12 12 13 15 18 20 21 22 22 22 22 21 21 21 21 20 20 20